Wetterdaten: Montag, 24.11.2014
Datum Zeit Temp. Aussen +5cm Feuchte Auss Luftdruck Regen Sonnenschein Regendauer Solar Windben
24.11.2014 00:00 9,6 C 8,3 C 90 % 1015,5 hPa 0,0 l/m 0 min 0 min 0 W/m 12,6 km/h (3 Bft)
24.11.2014 00:02 9,6 C 8,3 C 90 % 1015,5 hPa 0,0 l/m 0 min 0 min 0 W/m 12,6 km/h (3 Bft)
24.11.2014 00:05 9,6 C 8,3 C 90 % 1015,6 hPa 0,0 l/m 0 min 0 min 0 W/m 10,5 km/h (2 Bft)
24.11.2014 00:08 9,6 C 8,3 C 90 % 1015,5 hPa 0,0 l/m 0 min 0 min 0 W/m 12,6 km/h (3 Bft)
24.11.2014 00:10 9,6 C 8,3 C 90 % 1015,6 hPa 0,0 l/m 0 min 0 min 0 W/m 12,6 km/h (3 Bft)
24.11.2014 00:12 9,6 C 8,3 C 90 % 1015,6 hPa 0,0 l/m 0 min 0 min 0 W/m 12,6 km/h (3 Bft)
24.11.2014 00:14 9,6 C 8,3 C 90 % 1015,6 hPa 0,0 l/m 0 min 0 min 0 W/m 10,5 km/h (2 Bft)
24.11.2014 00:16 9,6 C 8,3 C 90 % 1015,6 hPa 0,0 l/m 0 min 0 min 0 W/m 10,5 km/h (2 Bft)
24.11.2014 00:18 9,6 C 8,3 C 90 % 1015,6 hPa 0,0 l/m 0 min 0 min 0 W/m 12,6 km/h (3 Bft)
24.11.2014 00:20 9,6 C 8,3 C 91 % 1015,6 hPa 0,0 l/m 0 min 0 min 0 W/m 10,5 km/h (2 Bft)
24.11.2014 00:22 9,6 C 8,3 C 91 % 1015,6 hPa 0,0 l/m 0 min 0 min 0 W/m 12,6 km/h (3 Bft)
24.11.2014 00:24 9,6 C 8,3 C 91 % 1015,5 hPa 0,0 l/m 0 min 0 min 0 W/m 10,5 km/h (2 Bft)
24.11.2014 00:26 9,6 C 8,3 C 91 % 1015,5 hPa 0,0 l/m 0 min 0 min 0 W/m 12,6 km/h (3 Bft)
24.11.2014 00:28 9,6 C 8,3 C 91 % 1015,6 hPa 0,0 l/m 0 min 0 min 0 W/m 10,5 km/h (2 Bft)
24.11.2014 00:30 9,6 C 8,3 C 91 % 1015,6 hPa 0,0 l/m 0 min 0 min 0 W/m 8,4 km/h (2 Bft)
24.11.2014 00:32 9,6 C 8,3 C 91 % 1015,7 hPa 0,0 l/m 0 min 0 min 0 W/m 10,5 km/h (2 Bft)
24.11.2014 00:34 9,6 C 8,3 C 91 % 1015,6 hPa 0,0 l/m 0 min 0 min 0 W/m 10,5 km/h (2 Bft)
24.11.2014 00:36 9,6 C 8,3 C 91 % 1015,6 hPa 0,0 l/m 0 min 0 min 0 W/m 12,6 km/h (3 Bft)
24.11.2014 00:38 9,6 C 8,3 C 91 % 1015,6 hPa 0,0 l/m 0 min 0 min 0 W/m 12,6 km/h (3 Bft)
24.11.2014 00:40 9,7 C 8,3 C 91 % 1015,6 hPa 0,0 l/m 0 min 0 min 0 W/m 12,6 km/h (3 Bft)
24.11.2014 00:42 9,6 C 8,3 C 91 % 1015,7 hPa 0,0 l/m 0 min 0 min 0 W/m 12,6 km/h (3 Bft)
24.11.2014 00:44 9,7 C 8,3 C 91 % 1015,6 hPa 0,0 l/m 0 min 0 min 0 W/m 12,6 km/h (3 Bft)
24.11.2014 00:46 9,7 C 8,3 C 91 % 1015,6 hPa 0,0 l/m 0 min 0 min 0 W/m 12,6 km/h (3 Bft)
24.11.2014 00:48 9,7 C 8,3 C 91 % 1015,6 hPa 0,0 l/m 0 min 0 min 0 W/m 8,4 km/h (2 Bft)
24.11.2014 00:50 9,7 C 8,3 C 91 % 1015,7 hPa 0,0 l/m 0 min 0 min 0 W/m 6,3 km/h (2 Bft)
24.11.2014 00:52 9,7 C 8,3 C 91 % 1015,6 hPa 0,0 l/m 0 min 0 min 0 W/m 12,6 km/h (3 Bft)
24.11.2014 00:54 9,7 C 8,3 C 91 % 1015,6 hPa 0,0 l/m 0 min 0 min 0 W/m 8,4 km/h (2 Bft)
24.11.2014 00:56 9,7 C 8,3 C 91 % 1015,7 hPa 0,0 l/m 0 min 0 min 0 W/m 10,5 km/h (2 Bft)
24.11.2014 00:58 9,7 C 8,3 C 91 % 1015,7 hPa 0,0 l/m 0 min 0 min 0 W/m 10,5 km/h (2 Bft)
24.11.2014 01:00 9,7 C 8,3 C 91 % 1015,9 hPa 0,0 l/m 0 min 0 min 0 W/m 12,6 km/h (3 Bft)
24.11.2014 01:02 9,7 C 8,3 C 91 % 1015,9 hPa 0,0 l/m 0 min 0 min 0 W/m 8,4 km/h (2 Bft)
24.11.2014 01:04 9,7 C 8,3 C 91 % 1016,0 hPa 0,0 l/m 0 min 0 min 0 W/m 10,5 km/h (2 Bft)
24.11.2014 01:06 9,7 C 8,3 C 91 % 1016,0 hPa 0,0 l/m 0 min 0 min 0 W/m 6,3 km/h (2 Bft)
24.11.2014 01:08 9,7 C 8,3 C 91 % 1016,0 hPa 0,0 l/m 0 min 0 min 0 W/m 8,4 km/h (2 Bft)
24.11.2014 01:10 9,7 C 8,3 C 91 % 1016,0 hPa 0,0 l/m 0 min 0 min 0 W/m 14,6 km/h (3 Bft)
24.11.2014 01:12 9,7 C 8,3 C 91 % 1016,0 hPa 0,0 l/m 0 min 0 min 0 W/m 10,5 km/h (2 Bft)
24.11.2014 01:14 9,7 C 8,3 C 91 % 1016,0 hPa 0,0 l/m 0 min 0 min 0 W/m 10,5 km/h (2 Bft)
24.11.2014 01:16 9,7 C 8,3 C 91 % 1016,0 hPa 0,0 l/m 0 min 0 min 0 W/m 8,4 km/h (2 Bft)
24.11.2014 01:18 9,7 C 8,3 C 91 % 1016,0 hPa 0,0 l/m 0 min 0 min 0 W/m 10,5 km/h (2 Bft)
24.11.2014 01:20 9,7 C 8,3 C 91 % 1016,0 hPa 0,0 l/m 0 min 0 min 0 W/m 8,4 km/h (2 Bft)
24.11.2014 01:22 9,7 C 8,3 C 91 % 1016,0 hPa 0,0 l/m 0 min 0 min 0 W/m 8,4 km/h (2 Bft)
24.11.2014 01:24 9,7 C 8,3 C 91 % 1016,0 hPa 0,0 l/m 0 min 0 min 0 W/m 8,4 km/h (2 Bft)
24.11.2014 01:26 9,7 C 8,3 C 91 % 1016,0 hPa 0,0 l/m 0 min 0 min 0 W/m 12,6 km/h (3 Bft)
24.11.2014 01:28 9,8 C 8,3 C 91 % 1016,1 hPa 0,0 l/m 0 min 0 min 0 W/m 10,5 km/h (2 Bft)
24.11.2014 01:30 9,8 C 8,3 C 91 % 1016,1 hPa 0,0 l/m 0 min 0 min 0 W/m 8,4 km/h (2 Bft)
24.11.2014 01:32 9,8 C 8,3 C 91 % 1016,2 hPa 0,0 l/m 0 min 0 min 0 W/m 8,4 km/h (2 Bft)
24.11.2014 01:34 9,8 C 8,3 C 91 % 1016,2 hPa 0,0 l/m 0 min 0 min 0 W/m 10,5 km/h (2 Bft)
24.11.2014 01:36 9,8 C 8,3 C 91 % 1016,2 hPa 0,0 l/m 0 min 0 min 0 W/m 6,3 km/h (2 Bft)
24.11.2014 01:38 9,8 C 8,3 C 91 % 1016,2 hPa 0,0 l/m 0 min 0 min 0 W/m 8,4 km/h (2 Bft)
24.11.2014 01:40 9,8 C 8,3 C 91 % 1016,2 hPa 0,0 l/m 0 min 0 min 0 W/m 8,4 km/h (2 Bft)
24.11.2014 01:42 9,8 C 8,3 C 91 % 1016,2 hPa 0,0 l/m 0 min 0 min 0 W/m 10,5 km/h (2 Bft)
24.11.2014 01:44 9,8 C 8,9 C 91 % 1016,2 hPa 0,0 l/m 0 min 0 min 0 W/m 8,4 km/h (2 Bft)
24.11.2014 01:46 9,8 C 8,9 C 91 % 1016,2 hPa 0,0 l/m 0 min 0 min 0 W/m 8,4 km/h (2 Bft)
24.11.2014 01:48 9,8 C 8,9 C 91 % 1016,3 hPa 0,0 l/m 0 min 0 min 0 W/m 8,4 km/h (2 Bft)
24.11.2014 01:50 9,8 C 8,9 C 91 % 1016,3 hPa 0,0 l/m 0 min 0 min 0 W/m 6,3 km/h (2 Bft)
24.11.2014 01:52 9,8 C 8,9 C 91 % 1016,4 hPa 0,0 l/m 0 min 0 min 0 W/m 8,4 km/h (2 Bft)
24.11.2014 01:54 9,8 C 8,9 C 91 % 1016,4 hPa 0,0 l/m 0 min 0 min 0 W/m 6,3 km/h (2 Bft)
24.11.2014 01:56 9,9 C 8,9 C 91 % 1016,3 hPa 0,0 l/m 0 min 0 min 0 W/m 8,4 km/h (2 Bft)
24.11.2014 01:58 9,9 C 8,9 C 92 % 1016,4 hPa 0,0 l/m 0 min 0 min 0 W/m 6,3 km/h (2 Bft)
24.11.2014 02:00 9,9 C 8,9 C 92 % 1016,3 hPa 0,0 l/m 0 min 0 min 0 W/m 6,3 km/h (2 Bft)
24.11.2014 02:02 9,9 C 8,9 C 92 % 1016,2 hPa 0,0 l/m 0 min 0 min 0 W/m 6,3 km/h (2 Bft)
24.11.2014 02:04 9,9 C 8,9 C 91 % 1016,4 hPa 0,0 l/m 0 min 0 min 0 W/m 6,3 km/h (2 Bft)
24.11.2014 02:06 9,9 C 8,3 C 92 % 1016,5 hPa 0,0 l/m 0 min 0 min 0 W/m 6,3 km/h (2 Bft)
24.11.2014 02:08 9,9 C 8,3 C 91 % 1016,6 hPa 0,0 l/m 0 min 0 min 0 W/m 4,2 km/h (1 Bft)
24.11.2014 02:10 9,9 C 8,3 C 92 % 1016,6 hPa 0,0 l/m 0 min 0 min 0 W/m 8,4 km/h (2 Bft)
24.11.2014 02:12 9,9 C 8,3 C 92 % 1016,6 hPa 0,0 l/m 0 min 0 min 0 W/m 6,3 km/h (2 Bft)
24.11.2014 02:14 9,9 C 8,9 C 92 % 1016,7 hPa 0,0 l/m 0 min 0 min 0 W/m 16,7 km/h (3 Bft)
24.11.2014 02:16 10,0 C 8,9 C 92 % 1016,7 hPa 0,0 l/m 0 min 0 min 0 W/m 12,6 km/h (3 Bft)
24.11.2014 02:18 10,2 C 8,9 C 93 % 1016,7 hPa 0,0 l/m 0 min 0 min 0 W/m 14,6 km/h (3 Bft)
24.11.2014 02:20 10,4 C 9,4 C 93 % 1016,8 hPa 0,0 l/m 0 min 0 min 0 W/m 18,8 km/h (3 Bft)
24.11.2014 02:22 10,5 C 9,4 C 93 % 1016,9 hPa 0,0 l/m 0 min 0 min 0 W/m 16,7 km/h (3 Bft)
24.11.2014 02:24 10,6 C 9,4 C 94 % 1016,9 hPa 0,0 l/m 0 min 0 min 0 W/m 20,9 km/h (4 Bft)
24.11.2014 02:26 10,8 C 10,0 C 94 % 1016,9 hPa 0,0 l/m 0 min 0 min 0 W/m 16,7 km/h (3 Bft)
24.11.2014 02:28 10,9 C 10,0 C 94 % 1016,9 hPa 0,0 l/m 0 min 0 min 0 W/m 27,2 km/h (4 Bft)
24.11.2014 02:30 11,0 C 9,4 C 94 % 1017,1 hPa 0,0 l/m 0 min 2 min 0 W/m 37,7 km/h (5 Bft)
24.11.2014 02:32 11,1 C 9,4 C 95 % 1017,3 hPa 0,0 l/m 0 min 0 min 0 W/m 33,5 km/h (5 Bft)
24.11.2014 02:34 11,0 C 9,4 C 95 % 1017,4 hPa 0,0 l/m 0 min 0 min 0 W/m 29,3 km/h (5 Bft)
24.11.2014 02:36 10,9 C 8,9 C 94 % 1017,5 hPa 0,0 l/m 0 min 0 min 0 W/m 29,3 km/h (5 Bft)
24.11.2014 02:38 10,9 C 8,9 C 94 % 1017,6 hPa 0,0 l/m 0 min 0 min 0 W/m 20,9 km/h (4 Bft)
24.11.2014 02:40 10,8 C 8,9 C 94 % 1017,6 hPa 0,0 l/m 0 min 0 min 0 W/m 33,5 km/h (5 Bft)
24.11.2014 02:42 10,7 C 8,9 C 94 % 1017,7 hPa 0,0 l/m 0 min 0 min 0 W/m 27,2 km/h (4 Bft)
24.11.2014 02:44 10,7 C 8,9 C 94 % 1017,7 hPa 0,0 l/m 0 min 0 min 0 W/m 23,0 km/h (4 Bft)
24.11.2014 02:46 10,6 C 8,3 C 94 % 1017,7 hPa 0,0 l/m 0 min 0 min 0 W/m 23,0 km/h (4 Bft)
24.11.2014 02:48 10,5 C 8,3 C 94 % 1017,7 hPa 0,0 l/m 0 min 0 min 0 W/m 12,6 km/h (3 Bft)
24.11.2014 02:50 10,4 C 8,3 C 94 % 1017,6 hPa 0,0 l/m 0 min 0 min 0 W/m 25,1 km/h (4 Bft)
24.11.2014 02:52 10,4 C 8,3 C 94 % 1017,6 hPa 0,0 l/m 0 min 0 min 0 W/m 14,6 km/h (3 Bft)
24.11.2014 02:54 10,3 C 8,3 C 94 % 1017,7 hPa 0,0 l/m 0 min 0 min 0 W/m 12,6 km/h (3 Bft)
24.11.2014 02:56 10,3 C 8,3 C 94 % 1017,7 hPa 0,0 l/m 0 min 0 min 0 W/m 25,1 km/h (4 Bft)
24.11.2014 02:58 10,2 C 8,3 C 94 % 1017,6 hPa 0,2 l/m 0 min 2 min 0 W/m 27,2 km/h (4 Bft)
24.11.2014 03:00 10,2 C 8,3 C 94 % 1017,4 hPa 0,0 l/m 0 min 2 min 0 W/m 25,1 km/h (4 Bft)
24.11.2014 03:02 10,1 C 8,3 C 94 % 1017,7 hPa 0,0 l/m 0 min 2 min 0 W/m 20,9 km/h (4 Bft)
24.11.2014 03:04 10,1 C 8,3 C 95 % 1017,8 hPa 0,0 l/m 0 min 2 min 0 W/m 20,9 km/h (4 Bft)
24.11.2014 03:06 10,0 C 8,3 C 95 % 1018,0 hPa 0,0 l/m 0 min 2 min 0 W/m 23,0 km/h (4 Bft)
24.11.2014 03:08 9,9 C 8,3 C 95 % 1018,1 hPa 0,0 l/m 0 min 2 min 0 W/m 23,0 km/h (4 Bft)
24.11.2014 03:10 9,9 C 8,3 C 95 % 1018,3 hPa 0,0 l/m 0 min 2 min 0 W/m 23,0 km/h (4 Bft)
24.11.2014 03:12 9,8 C 8,3 C 95 % 1018,3 hPa 0,0 l/m 0 min 2 min 0 W/m 18,8 km/h (3 Bft)
24.11.2014 03:14 9,8 C 7,8 C 95 % 1018,2 hPa 0,0 l/m 0 min 2 min 0 W/m 20,9 km/h (4 Bft)
24.11.2014 03:16 9,8 C 7,8 C 95 % 1018,0 hPa 0,0 l/m 0 min 2 min 0 W/m 23,0 km/h (4 Bft)
24.11.2014 03:18 9,8 C 7,8 C 95 % 1018,0 hPa 0,0 l/m 0 min 2 min 0 W/m 16,7 km/h (3 Bft)
24.11.2014 03:20 9,7 C 7,8 C 95 % 1018,2 hPa 0,0 l/m 0 min 2 min 0 W/m 16,7 km/h (3 Bft)
24.11.2014 03:22 9,7 C 7,8 C 95 % 1018,4 hPa 0,0 l/m 0 min 2 min 0 W/m 10,5 km/h (2 Bft)
24.11.2014 03:24 9,7 C 7,8 C 95 % 1018,5 hPa 0,0 l/m 0 min 2 min 0 W/m 16,7 km/h (3 Bft)
24.11.2014 03:26 9,7 C 7,8 C 95 % 1018,5 hPa 0,0 l/m 0 min 2 min 0 W/m 14,6 km/h (3 Bft)
24.11.2014 03:28 9,7 C 7,8 C 95 % 1018,4 hPa 0,0 l/m 0 min 2 min 0 W/m 12,6 km/h (3 Bft)
24.11.2014 03:30 9,7 C 7,8 C 95 % 1018,6 hPa 0,2 l/m 0 min 2 min 0 W/m 14,6 km/h (3 Bft)
24.11.2014 03:32 9,6 C 7,8 C 95 % 1018,6 hPa 0,0 l/m 0 min 2 min 0 W/m 10,5 km/h (2 Bft)
24.11.2014 03:34 9,6 C 7,8 C 95 % 1018,6 hPa 0,0 l/m 0 min 2 min 0 W/m 14,6 km/h (3 Bft)
24.11.2014 03:36 9,6 C 7,8 C 95 % 1018,6 hPa 0,0 l/m 0 min 2 min 0 W/m 12,6 km/h (3 Bft)
24.11.2014 03:38 9,6 C 7,8 C 95 % 1018,6 hPa 0,0 l/m 0 min 2 min 0 W/m 10,5 km/h (2 Bft)
24.11.2014 03:40 9,6 C 7,8 C 95 % 1018,8 hPa 0,0 l/m 0 min 2 min 0 W/m 8,4 km/h (2 Bft)
24.11.2014 03:42 9,6 C 7,8 C 95 % 1018,8 hPa 0,2 l/m 0 min 2 min 0 W/m 8,4 km/h (2 Bft)
24.11.2014 03:44 9,6 C 7,8 C 95 % 1018,8 hPa 0,0 l/m 0 min 2 min 0 W/m 12,6 km/h (3 Bft)
24.11.2014 03:46 9,5 C 7,8 C 95 % 1018,7 hPa 0,0 l/m 0 min 2 min 0 W/m 12,6 km/h (3 Bft)
24.11.2014 03:48 9,5 C 7,8 C 95 % 1018,7 hPa 0,0 l/m 0 min 2 min 0 W/m 14,6 km/h (3 Bft)
24.11.2014 03:50 9,5 C 7,8 C 95 % 1018,6 hPa 0,0 l/m 0 min 2 min 0 W/m 8,4 km/h (2 Bft)
24.11.2014 03:52 9,4 C 7,8 C 95 % 1018,5 hPa 0,0 l/m 0 min 2 min 0 W/m 12,6 km/h (3 Bft)
24.11.2014 03:54 9,4 C 7,8 C 95 % 1018,5 hPa 0,0 l/m 0 min 2 min 0 W/m 10,5 km/h (2 Bft)
24.11.2014 03:56 9,4 C 7,8 C 95 % 1018,6 hPa 0,0 l/m 0 min 2 min 0 W/m 8,4 km/h (2 Bft)
24.11.2014 03:58 9,4 C 7,8 C 95 % 1018,6 hPa 0,0 l/m 0 min 2 min 0 W/m 6,3 km/h (2 Bft)
24.11.2014 04:00 9,4 C 7,8 C 96 % 1018,7 hPa 0,0 l/m 0 min 2 min 0 W/m 6,3 km/h (2 Bft)
24.11.2014 04:02 9,4 C 7,8 C 96 % 1018,6 hPa 0,0 l/m 0 min 2 min 0 W/m 8,4 km/h (2 Bft)
24.11.2014 04:04 9,4 C 7,8 C 96 % 1018,7 hPa 0,0 l/m 0 min 2 min 0 W/m 6,3 km/h (2 Bft)
24.11.2014 04:06 9,4 C 7,8 C 96 % 1018,8 hPa 0,2 l/m 0 min 2 min 0 W/m 6,3 km/h (2 Bft)
24.11.2014 04:08 9,3 C 7,8 C 95 % 1018,7 hPa 0,0 l/m 0 min 2 min 0 W/m 4,2 km/h (1 Bft)
24.11.2014 04:10 9,3 C 7,8 C 95 % 1018,7 hPa 0,0 l/m 0 min 2 min 0 W/m 4,2 km/h (1 Bft)
24.11.2014 04:12 9,3 C 7,8 C 95 % 1018,6 hPa 0,0 l/m 0 min 2 min 0 W/m 4,2 km/h (1 Bft)
24.11.2014 04:14 9,3 C 7,8 C 95 % 1018,7 hPa 0,0 l/m 0 min 2 min 0 W/m 4,2 km/h (1 Bft)
24.11.2014 04:16 9,3 C 7,8 C 95 % 1018,7 hPa 0,2 l/m 0 min 2 min 0 W/m 2,1 km/h (1 Bft)
24.11.2014 04:18 9,3 C 7,8 C 95 % 1018,8 hPa 0,0 l/m 0 min 2 min 0 W/m 6,3 km/h (2 Bft)
24.11.2014 04:20 9,3 C 7,8 C 96 % 1018,8 hPa 0,0 l/m 0 min 2 min 0 W/m 8,4 km/h (2 Bft)
24.11.2014 04:22 9,3 C 7,8 C 96 % 1018,9 hPa 0,0 l/m 0 min 2 min 0 W/m 6,3 km/h (2 Bft)
24.11.2014 04:24 9,2 C 7,8 C 96 % 1018,9 hPa 0,0 l/m 0 min 2 min 0 W/m 8,4 km/h (2 Bft)
24.11.2014 04:26 9,2 C 7,8 C 96 % 1018,8 hPa 0,0 l/m 0 min 2 min 0 W/m 4,2 km/h (1 Bft)
24.11.2014 04:28 9,2 C 7,8 C 96 % 1018,8 hPa 0,0 l/m 0 min 2 min 0 W/m 4,2 km/h (1 Bft)
24.11.2014 04:30 9,2 C 7,8 C 96 % 1019,0 hPa 0,2 l/m 0 min 2 min 0 W/m 4,2 km/h (1 Bft)
24.11.2014 04:32 9,2 C 7,8 C 96 % 1018,8 hPa 0,0 l/m 0 min 2 min 0 W/m 6,3 km/h (2 Bft)
24.11.2014 04:34 9,2 C 7,8 C 96 % 1019,2 hPa 0,0 l/m 0 min 2 min 0 W/m 10,5 km/h (2 Bft)
24.11.2014 04:36 9,2 C 7,8 C 96 % 1019,2 hPa 0,0 l/m 0 min 2 min 0 W/m 8,4 km/h (2 Bft)
24.11.2014 04:38 9,2 C 7,8 C 96 % 1019,1 hPa 0,2 l/m 0 min 2 min 0 W/m 8,4 km/h (2 Bft)
24.11.2014 04:40 9,2 C 7,8 C 96 % 1019,1 hPa 0,0 l/m 0 min 2 min 0 W/m 6,3 km/h (2 Bft)
24.11.2014 04:42 9,2 C 7,8 C 96 % 1019,2 hPa 0,0 l/m 0 min 2 min 0 W/m 8,4 km/h (2 Bft)
24.11.2014 04:44 9,2 C 7,8 C 96 % 1019,5 hPa 0,2 l/m 0 min 2 min 0 W/m 6,3 km/h (2 Bft)
24.11.2014 04:46 9,2 C 7,8 C 96 % 1019,6 hPa 0,0 l/m 0 min 2 min 0 W/m 10,5 km/h (2 Bft)
24.11.2014 04:48 9,2 C 7,8 C 96 % 1019,3 hPa 0,2 l/m 0 min 2 min 0 W/m 6,3 km/h (2 Bft)
24.11.2014 04:50 9,2 C 7,8 C 96 % 1019,3 hPa 0,0 l/m 0 min 2 min 0 W/m 8,4 km/h (2 Bft)
24.11.2014 04:52 9,1 C 7,8 C 96 % 1019,3 hPa 0,0 l/m 0 min 2 min 0 W/m 6,3 km/h (2 Bft)
24.11.2014 04:54 9,1 C 7,8 C 96 % 1019,4 hPa 0,0 l/m 0 min 2 min 0 W/m 12,6 km/h (3 Bft)
24.11.2014 04:56 9,1 C 7,8 C 96 % 1019,5 hPa 0,2 l/m 0 min 2 min 0 W/m 6,3 km/h (2 Bft)
24.11.2014 04:58 9,1 C 7,8 C 96 % 1019,6 hPa 0,0 l/m 0 min 0 min 0 W/m 8,4 km/h (2 Bft)
24.11.2014 05:00 9,1 C 7,8 C 96 % 1019,8 hPa 0,0 l/m 0 min 0 min 0 W/m 10,5 km/h (2 Bft)
24.11.2014 05:02 9,1 C 7,8 C 96 % 1019,9 hPa 0,0 l/m 0 min 2 min 0 W/m 10,5 km/h (2 Bft)
24.11.2014 05:04 9,1 C 7,8 C 96 % 1020,0 hPa 0,0 l/m 0 min 2 min 0 W/m 10,5 km/h (2 Bft)
24.11.2014 05:06 9,1 C 7,8 C 96 % 1019,8 hPa 0,0 l/m 0 min 2 min 0 W/m 14,6 km/h (3 Bft)
24.11.2014 05:08 9,1 C 7,8 C 96 % 1019,8 hPa 0,2 l/m 0 min 2 min 0 W/m 12,6 km/h (3 Bft)
24.11.2014 05:10 9,1 C 7,8 C 96 % 1019,9 hPa 0,0 l/m 0 min 2 min 0 W/m 12,6 km/h (3 Bft)
24.11.2014 05:12 9,1 C 7,8 C 96 % 1019,8 hPa 0,2 l/m 0 min 2 min 0 W/m 12,6 km/h (3 Bft)
24.11.2014 05:14 9,1 C 7,8 C 96 % 1019,9 hPa 0,0 l/m 0 min 2 min 0 W/m 10,5 km/h (2 Bft)
24.11.2014 05:16 9,1 C 7,8 C 96 % 1020,1 hPa 0,2 l/m 0 min 2 min 0 W/m 14,6 km/h (3 Bft)
24.11.2014 05:18 9,1 C 7,8 C 96 % 1020,1 hPa 0,0 l/m 0 min 2 min 0 W/m 10,5 km/h (2 Bft)
24.11.2014 05:20 9,1 C 7,8 C 96 % 1020,1 hPa 0,2 l/m 0 min 2 min 0 W/m 10,5 km/h (2 Bft)
24.11.2014 05:22 9,1 C 7,8 C 96 % 1020,2 hPa 0,0 l/m 0 min 2 min 0 W/m 12,6 km/h (3 Bft)
24.11.2014 05:24 9,1 C 7,8 C 96 % 1020,1 hPa 0,0 l/m 0 min 0 min 0 W/m 14,6 km/h (3 Bft)
24.11.2014 05:26 9,1 C 7,8 C 96 % 1020,1 hPa 0,0 l/m 0 min 0 min 0 W/m 12,6 km/h (3 Bft)
24.11.2014 05:28 9,1 C 7,8 C 96 % 1020,2 hPa 0,0 l/m 0 min 2 min 0 W/m 8,4 km/h (2 Bft)
24.11.2014 05:30 9,1 C 7,8 C 96 % 1020,5 hPa 0,0 l/m 0 min 2 min 0 W/m 10,5 km/h (2 Bft)
24.11.2014 05:32 9,1 C 7,8 C 96 % 1020,3 hPa 0,0 l/m 0 min 2 min 0 W/m 10,5 km/h (2 Bft)
24.11.2014 05:34 9,1 C 7,8 C 96 % 1020,4 hPa 0,2 l/m 0 min 2 min 0 W/m 14,6 km/h (3 Bft)
24.11.2014 05:36 9,1 C 7,8 C 96 % 1020,4 hPa 0,0 l/m 0 min 2 min 0 W/m 8,4 km/h (2 Bft)
24.11.2014 05:38 9,1 C 7,8 C 96 % 1020,4 hPa 0,0 l/m 0 min 2 min 0 W/m 12,6 km/h (3 Bft)
24.11.2014 05:40 9,1 C 7,8 C 96 % 1020,5 hPa 0,0 l/m 0 min 2 min 0 W/m 12,6 km/h (3 Bft)
24.11.2014 05:42 9,1 C 7,8 C 96 % 1020,6 hPa 0,0 l/m 0 min 2 min 0 W/m 10,5 km/h (2 Bft)
24.11.2014 05:44 9,1 C 7,8 C 96 % 1020,6 hPa 0,0 l/m 0 min 2 min 0 W/m 14,6 km/h (3 Bft)
24.11.2014 05:46 9,1 C 7,8 C 96 % 1020,7 hPa 0,0 l/m 0 min 0 min 0 W/m 12,6 km/h (3 Bft)
24.11.2014 05:48 9,1 C 7,8 C 96 % 1020,7 hPa 0,0 l/m 0 min 0 min 0 W/m 14,6 km/h (3 Bft)
24.11.2014 05:50 9,1 C 7,8 C 96 % 1020,6 hPa 0,0 l/m 0 min 0 min 0 W/m 23,0 km/h (4 Bft)
24.11.2014 05:52 9,1 C 7,8 C 96 % 1020,6 hPa 0,0 l/m 0 min 0 min 0 W/m 20,9 km/h (4 Bft)
24.11.2014 05:54 9,0 C 7,8 C 97 % 1020,8 hPa 0,0 l/m 0 min 0 min 0 W/m 23,0 km/h (4 Bft)
24.11.2014 05:56 9,0 C 7,8 C 97 % 1020,8 hPa 0,0 l/m 0 min 0 min 0 W/m 20,9 km/h (4 Bft)
24.11.2014 05:58 9,0 C 7,8 C 97 % 1020,9 hPa 0,0 l/m 0 min 0 min 0 W/m 16,7 km/h (3 Bft)
24.11.2014 06:00 9,0 C 7,8 C 97 % 1021,0 hPa 0,0 l/m 0 min 0 min 0 W/m 20,9 km/h (4 Bft)
24.11.2014 06:02 8,9 C 7,8 C 97 % 1021,0 hPa 0,0 l/m 0 min 0 min 0 W/m 16,7 km/h (3 Bft)
24.11.2014 06:05 8,9 C 7,2 C 97 % 1021,0 hPa 0,0 l/m 0 min 0 min 0 W/m 14,6 km/h (3 Bft)
24.11.2014 06:06 8,9 C 7,2 C 97 % 1021,0 hPa 0,0 l/m 0 min 0 min 0 W/m 14,6 km/h (3 Bft)
24.11.2014 06:08 8,9 C 7,2 C 97 % 1021,0 hPa 0,0 l/m 0 min 0 min 0 W/m 16,7 km/h (3 Bft)
24.11.2014 06:10 8,9 C 7,2 C 96 % 1021,0 hPa 0,0 l/m 0 min 0 min 0 W/m 14,6 km/h (3 Bft)
24.11.2014 06:12 8,9 C 7,2 C 96 % 1021,0 hPa 0,0 l/m 0 min 0 min 0 W/m 20,9 km/h (4 Bft)
24.11.2014 06:14 8,8 C 7,2 C 97 % 1021,1 hPa 0,0 l/m 0 min 0 min 0 W/m 20,9 km/h (4 Bft)
24.11.2014 06:16 8,8 C 7,2 C 97 % 1021,2 hPa 0,0 l/m 0 min 0 min 0 W/m 12,6 km/h (3 Bft)
24.11.2014 06:18 8,8 C 7,2 C 97 % 1021,2 hPa 0,0 l/m 0 min 0 min 0 W/m 16,7 km/h (3 Bft)
24.11.2014 06:20 8,8 C 7,2 C 97 % 1021,3 hPa 0,0 l/m 0 min 0 min 0 W/m 18,8 km/h (3 Bft)
24.11.2014 06:22 8,8 C 7,2 C 97 % 1021,4 hPa 0,0 l/m 0 min 0 min 0 W/m 16,7 km/h (3 Bft)
24.11.2014 06:24 8,7 C 7,2 C 97 % 1021,4 hPa 0,0 l/m 0 min 0 min 0 W/m 20,9 km/h (4 Bft)
24.11.2014 06:26 8,7 C 7,2 C 97 % 1021,6 hPa 0,0 l/m 0 min 0 min 0 W/m 25,1 km/h (4 Bft)
24.11.2014 06:28 8,7 C 7,2 C 97 % 1021,6 hPa 0,0 l/m 0 min 0 min 0 W/m 23,0 km/h (4 Bft)
24.11.2014 06:30 8,7 C 7,2 C 97 % 1021,6 hPa 0,0 l/m 0 min 0 min 0 W/m 23,0 km/h (4 Bft)
24.11.2014 06:32 8,6 C 7,2 C 97 % 1021,7 hPa 0,0 l/m 0 min 0 min 0 W/m 25,1 km/h (4 Bft)
24.11.2014 06:34 8,6 C 7,2 C 97 % 1021,7 hPa 0,0 l/m 0 min 0 min 0 W/m 18,8 km/h (3 Bft)
24.11.2014 06:36 8,6 C 7,2 C 97 % 1021,8 hPa 0,0 l/m 0 min 0 min 0 W/m 18,8 km/h (3 Bft)
24.11.2014 06:38 8,6 C 7,2 C 97 % 1021,8 hPa 0,0 l/m 0 min 0 min 0 W/m 20,9 km/h (4 Bft)
24.11.2014 06:40 8,5 C 7,2 C 97 % 1021,8 hPa 0,0 l/m 0 min 0 min 0 W/m 18,8 km/h (3 Bft)
24.11.2014 06:42 8,5 C 7,2 C 97 % 1021,8 hPa 0,0 l/m 0 min 0 min 0 W/m 16,7 km/h (3 Bft)
24.11.2014 06:44 8,4 C 7,2 C 97 % 1021,8 hPa 0,0 l/m 0 min 0 min 0 W/m 12,6 km/h (3 Bft)
24.11.2014 06:46 8,4 C 7,2 C 97 % 1021,9 hPa 0,0 l/m 0 min 0 min 0 W/m 10,5 km/h (2 Bft)
24.11.2014 06:48 8,4 C 7,2 C 97 % 1021,9 hPa 0,0 l/m 0 min 0 min 0 W/m 12,6 km/h (3 Bft)
24.11.2014 06:50 8,4 C 7,2 C 97 % 1021,8 hPa 0,0 l/m 0 min 0 min 0 W/m 10,5 km/h (2 Bft)
24.11.2014 06:52 8,3 C 7,2 C 97 % 1021,9 hPa 0,0 l/m 0 min 0 min 0 W/m 12,6 km/h (3 Bft)
24.11.2014 06:54 8,3 C 7,2 C 97 % 1021,9 hPa 0,0 l/m 0 min 0 min 0 W/m 12,6 km/h (3 Bft)
24.11.2014 06:56 8,3 C 6,7 C 97 % 1021,9 hPa 0,0 l/m 0 min 0 min 0 W/m 12,6 km/h (3 Bft)
24.11.2014 06:58 8,3 C 6,7 C 97 % 1021,9 hPa 0,0 l/m 0 min 0 min 0 W/m 10,5 km/h (2 Bft)
24.11.2014 07:00 8,3 C 6,7 C 97 % 1022,0 hPa 0,0 l/m 0 min 0 min 0 W/m 10,5 km/h (2 Bft)
24.11.2014 07:02 8,3 C 6,7 C 97 % 1022,0 hPa 0,0 l/m 0 min 0 min 0 W/m 8,4 km/h (2 Bft)
24.11.2014 07:04 8,2 C 6,7 C 97 % 1022,1 hPa 0,0 l/m 0 min 0 min 0 W/m 8,4 km/h (2 Bft)
24.11.2014 07:06 8,2 C 6,7 C 97 % 1022,2 hPa 0,0 l/m 0 min 0 min 0 W/m 10,5 km/h (2 Bft)
24.11.2014 07:08 8,2 C 6,7 C 97 % 1022,2 hPa 0,0 l/m 0 min 0 min 0 W/m 14,6 km/h (3 Bft)
24.11.2014 07:10 8,2 C 6,7 C 97 % 1022,2 hPa 0,0 l/m 0 min 0 min 0 W/m 10,5 km/h (2 Bft)
24.11.2014 07:12 8,2 C 6,7 C 97 % 1022,4 hPa 0,0 l/m 0 min 0 min 0 W/m 10,5 km/h (2 Bft)
24.11.2014 07:14 8,2 C 6,7 C 97 % 1022,3 hPa 0,0 l/m 0 min 0 min 0 W/m 14,6 km/h (3 Bft)
24.11.2014 07:16 8,1 C 6,7 C 97 % 1022,4 hPa 0,0 l/m 0 min 0 min 0 W/m 12,6 km/h (3 Bft)
24.11.2014 07:18 8,1 C 6,7 C 97 % 1022,5 hPa 0,0 l/m 0 min 0 min 0 W/m 10,5 km/h (2 Bft)
24.11.2014 07:20 8,1 C 6,7 C 96 % 1022,5 hPa 0,0 l/m 0 min 0 min 0 W/m 10,5 km/h (2 Bft)
24.11.2014 07:22 8,1 C 6,7 C 97 % 1022,5 hPa 0,0 l/m 0 min 0 min 0 W/m 10,5 km/h (2 Bft)
24.11.2014 07:24 8,1 C 6,7 C 97 % 1022,6 hPa 0,0 l/m 0 min 0 min 0 W/m 8,4 km/h (2 Bft)
24.11.2014 07:26 8,1 C 6,7 C 97 % 1022,4 hPa 0,0 l/m 0 min 0 min 0 W/m 8,4 km/h (2 Bft)
24.11.2014 07:28 8,1 C 6,7 C 97 % 1022,5 hPa 0,0 l/m 0 min 0 min 0 W/m 8,4 km/h (2 Bft)
24.11.2014 07:30 8,0 C 6,1 C 96 % 1022,5 hPa 0,0 l/m 0 min 0 min 0 W/m 6,3 km/h (2 Bft)
24.11.2014 07:32 8,0 C 6,1 C 97 % 1022,5 hPa 0,0 l/m 0 min 0 min 0 W/m 8,4 km/h (2 Bft)
24.11.2014 07:34 8,0 C 6,1 C 96 % 1022,6 hPa 0,0 l/m 0 min 0 min 0 W/m 6,3 km/h (2 Bft)
24.11.2014 07:36 7,9 C 6,1 C 97 % 1022,6 hPa 0,0 l/m 0 min 0 min 0 W/m 6,3 km/h (2 Bft)
24.11.2014 07:38 7,9 C 6,1 C 97 % 1022,7 hPa 0,0 l/m 0 min 0 min 0 W/m 4,2 km/h (1 Bft)
24.11.2014 07:40 7,9 C 6,1 C 97 % 1022,7 hPa 0,0 l/m 0 min 0 min 0 W/m 8,4 km/h (2 Bft)
24.11.2014 07:42 7,9 C 6,1 C 97 % 1022,7 hPa 0,0 l/m 0 min 0 min 0 W/m 6,3 km/h (2 Bft)
24.11.2014 07:44 7,9 C 5,6 C 97 % 1022,7 hPa 0,0 l/m 0 min 0 min 0 W/m 6,3 km/h (2 Bft)
24.11.2014 07:46 7,8 C 5,6 C 97 % 1022,7 hPa 0,0 l/m 0 min 0 min 0 W/m 4,2 km/h (1 Bft)
24.11.2014 07:48 7,8 C 5,6 C 97 % 1022,7 hPa 0,0 l/m 0 min 0 min 0 W/m 8,4 km/h (2 Bft)
24.11.2014 07:50 7,8 C 5,6 C 97 % 1022,7 hPa 0,0 l/m 0 min 0 min 0 W/m 4,2 km/h (1 Bft)
24.11.2014 07:52 7,8 C 5,0 C 96 % 1022,8 hPa 0,0 l/m 0 min 0 min 0 W/m 4,2 km/h (1 Bft)
24.11.2014 07:54 7,7 C 5,0 C 96 % 1022,8 hPa 0,0 l/m 0 min 0 min 0 W/m 4,2 km/h (1 Bft)
24.11.2014 07:56 7,7 C 5,0 C 96 % 1022,8 hPa 0,0 l/m 0 min 0 min 0 W/m 4,2 km/h (1 Bft)
24.11.2014 07:58 7,6 C 5,0 C 96 % 1022,8 hPa 0,0 l/m 0 min 0 min 0 W/m 4,2 km/h (1 Bft)
24.11.2014 08:00 7,6 C 5,0 C 96 % 1022,8 hPa 0,0 l/m 0 min 0 min 0 W/m 2,1 km/h (1 Bft)
24.11.2014 08:02 7,6 C 5,0 C 96 % 1022,9 hPa 0,0 l/m 0 min 0 min 0 W/m 2,1 km/h (1 Bft)
24.11.2014 08:04 7,5 C 5,0 C 96 % 1022,9 hPa 0,0 l/m 0 min 0 min 0 W/m 2,1 km/h (1 Bft)
24.11.2014 08:06 7,4 C 5,0 C 96 % 1022,9 hPa 0,0 l/m 0 min 0 min 5 W/m 2,1 km/h (1 Bft)
24.11.2014 08:08 7,4 C 4,4 C 96 % 1022,9 hPa 0,0 l/m 0 min 0 min 5 W/m 4,2 km/h (1 Bft)
24.11.2014 08:10 7,3 C 4,4 C 96 % 1022,9 hPa 0,0 l/m 0 min 0 min 5 W/m 4,2 km/h (1 Bft)
24.11.2014 08:12 7,3 C 4,4 C 96 % 1023,0 hPa 0,0 l/m 0 min 0 min 5 W/m 4,2 km/h (1 Bft)
24.11.2014 08:14 7,2 C 4,4 C 96 % 1023,0 hPa 0,0 l/m 0 min 0 min 7 W/m 4,2 km/h (1 Bft)
24.11.2014 08:16 7,2 C 4,4 C 96 % 1023,1 hPa 0,0 l/m 0 min 0 min 7 W/m 4,2 km/h (1 Bft)
24.11.2014 08:18 7,1 C 4,4 C 96 % 1023,1 hPa 0,0 l/m 0 min 0 min 7 W/m 4,2 km/h (1 Bft)
24.11.2014 08:20 7,1 C 4,4 C 96 % 1023,1 hPa 0,0 l/m 0 min 0 min 7 W/m 2,1 km/h (1 Bft)
24.11.2014 08:22 7,0 C 4,4 C 96 % 1023,2 hPa 0,0 l/m 0 min 0 min 8 W/m 2,1 km/h (1 Bft)
24.11.2014 08:24 6,9 C 4,4 C 96 % 1023,2 hPa 0,0 l/m 0 min 0 min 9 W/m 4,2 km/h (1 Bft)
24.11.2014 08:26 6,9 C 4,4 C 96 % 1023,2 hPa 0,0 l/m 0 min 0 min 9 W/m 4,2 km/h (1 Bft)
24.11.2014 08:28 6,8 C 4,4 C 96 % 1023,3 hPa 0,0 l/m 0 min 0 min 10 W/m 2,1 km/h (1 Bft)
24.11.2014 08:30 6,8 C 4,4 C 96 % 1023,3 hPa 0,0 l/m 0 min 0 min 11 W/m 4,2 km/h (1 Bft)
24.11.2014 08:32 6,7 C 4,4 C 96 % 1023,4 hPa 0,0 l/m 0 min 0 min 11 W/m 4,2 km/h (1 Bft)
24.11.2014 08:34 6,7 C 4,4 C 96 % 1023,4 hPa 0,0 l/m 0 min 0 min 11 W/m 2,1 km/h (1 Bft)
24.11.2014 08:36 6,6 C 4,4 C 96 % 1023,4 hPa 0,0 l/m 0 min 0 min 12 W/m 2,1 km/h (1 Bft)
24.11.2014 08:38 6,6 C 4,4 C 96 % 1023,4 hPa 0,0 l/m 0 min 0 min 12 W/m 2,1 km/h (1 Bft)
24.11.2014 08:40 6,6 C 4,4 C 96 % 1023,4 hPa 0,0 l/m 0 min 0 min 12 W/m 2,1 km/h (1 Bft)
24.11.2014 08:42 6,5 C 3,9 C 96 % 1023,4 hPa 0,0 l/m 0 min 0 min 12 W/m 4,2 km/h (1 Bft)
24.11.2014 08:44 6,4 C 3,9 C 96 % 1023,4 hPa 0,0 l/m 0 min 0 min 13 W/m 0,0 km/h (0 Bft)
24.11.2014 08:46 6,4 C 3,9 C 96 % 1023,5 hPa 0,0 l/m 0 min 0 min 14 W/m 0,0 km/h (0 Bft)
24.11.2014 08:48 6,4 C 3,9 C 96 % 1023,5 hPa 0,0 l/m 0 min 0 min 14 W/m 2,1 km/h (1 Bft)
24.11.2014 08:50 6,3 C 3,9 C 96 % 1023,5 hPa 0,0 l/m 0 min 0 min 15 W/m 2,1 km/h (1 Bft)
24.11.2014 08:52 6,3 C 3,9 C 96 % 1023,5 hPa 0,0 l/m 0 min 0 min 16 W/m 2,1 km/h (1 Bft)
24.11.2014 08:54 6,2 C 3,9 C 96 % 1023,5 hPa 0,0 l/m 0 min 0 min 18 W/m 4,2 km/h (1 Bft)
24.11.2014 08:56 6,2 C 3,9 C 95 % 1023,5 hPa 0,0 l/m 0 min 0 min 19 W/m 2,1 km/h (1 Bft)
24.11.2014 08:58 6,2 C 3,9 C 95 % 1023,5 hPa 0,0 l/m 0 min 0 min 21 W/m 2,1 km/h (1 Bft)
24.11.2014 09:00 6,1 C 3,9 C 95 % 1023,5 hPa 0,0 l/m 0 min 0 min 24 W/m 2,1 km/h (1 Bft)
24.11.2014 09:02 6,1 C 3,9 C 95 % 1023,6 hPa 0,0 l/m 0 min 0 min 29 W/m 2,1 km/h (1 Bft)
24.11.2014 09:04 6,0 C 3,9 C 95 % 1023,6 hPa 0,0 l/m 0 min 0 min 43 W/m 2,1 km/h (1 Bft)
24.11.2014 09:06 6,0 C 3,9 C 96 % 1023,6 hPa 0,0 l/m 0 min 0 min 42 W/m 4,2 km/h (1 Bft)
24.11.2014 09:08 5,9 C 3,9 C 96 % 1023,7 hPa 0,0 l/m 0 min 0 min 33 W/m 4,2 km/h (1 Bft)
24.11.2014 09:10 5,9 C 3,9 C 96 % 1023,7 hPa 0,0 l/m 0 min 0 min 48 W/m 4,2 km/h (1 Bft)
24.11.2014 09:12 5,9 C 3,9 C 96 % 1023,8 hPa 0,0 l/m 0 min 0 min 65 W/m 2,1 km/h (1 Bft)
24.11.2014 09:14 5,9 C 3,9 C 96 % 1023,8 hPa 0,0 l/m 0 min 0 min 69 W/m 4,2 km/h (1 Bft)
24.11.2014 09:16 5,8 C 3,9 C 96 % 1023,8 hPa 0,0 l/m 0 min 0 min 73 W/m 4,2 km/h (1 Bft)
24.11.2014 09:18 5,8 C 3,9 C 95 % 1023,9 hPa 0,0 l/m 2 min 0 min 76 W/m 4,2 km/h (1 Bft)
24.11.2014 09:20 5,8 C 4,4 C 95 % 1023,8 hPa 0,0 l/m 2 min 0 min 79 W/m 6,3 km/h (2 Bft)
24.11.2014 09:22 5,8 C 4,4 C 95 % 1023,9 hPa 0,0 l/m 2 min 0 min 83 W/m 6,3 km/h (2 Bft)
24.11.2014 09:24 5,8 C 4,4 C 95 % 1024,0 hPa 0,0 l/m 2 min 0 min 85 W/m 6,3 km/h (2 Bft)
24.11.2014 09:26 5,8 C 4,4 C 95 % 1024,0 hPa 0,0 l/m 2 min 0 min 89 W/m 4,2 km/h (1 Bft)
24.11.2014 09:28 5,8 C 4,4 C 95 % 1024,1 hPa 0,0 l/m 2 min 0 min 93 W/m 4,2 km/h (1 Bft)
24.11.2014 09:30 5,8 C 5,0 C 95 % 1024,1 hPa 0,0 l/m 2 min 0 min 96 W/m 4,2 km/h (1 Bft)
24.11.2014 09:32 5,8 C 5,0 C 95 % 1024,2 hPa 0,0 l/m 2 min 0 min 98 W/m 6,3 km/h (2 Bft)
24.11.2014 09:34 5,8 C 5,0 C 96 % 1024,2 hPa 0,0 l/m 2 min 0 min 103 W/m 4,2 km/h (1 Bft)
24.11.2014 09:36 5,8 C 5,0 C 96 % 1024,2 hPa 0,0 l/m 2 min 0 min 106 W/m 4,2 km/h (1 Bft)
24.11.2014 09:38 5,9 C 5,0 C 96 % 1024,3 hPa 0,0 l/m 2 min 0 min 110 W/m 4,2 km/h (1 Bft)
24.11.2014 09:40 5,9 C 5,0 C 96 % 1024,3 hPa 0,0 l/m 2 min 0 min 113 W/m 6,3 km/h (2 Bft)
24.11.2014 09:42 5,9 C 5,0 C 96 % 1024,4 hPa 0,0 l/m 2 min 0 min 116 W/m 4,2 km/h (1 Bft)
24.11.2014 09:44 6,1 C 5,6 C 96 % 1024,4 hPa 0,0 l/m 2 min 0 min 121 W/m 6,3 km/h (2 Bft)
24.11.2014 09:46 6,1 C 5,6 C 96 % 1024,5 hPa 0,0 l/m 2 min 0 min 124 W/m 4,2 km/h (1 Bft)
24.11.2014 09:48 6,1 C 5,6 C 96 % 1024,5 hPa 0,0 l/m 2 min 0 min 128 W/m 8,4 km/h (2 Bft)
24.11.2014 09:50 6,2 C 5,6 C 96 % 1024,6 hPa 0,0 l/m 2 min 0 min 131 W/m 6,3 km/h (2 Bft)
24.11.2014 09:52 6,2 C 5,6 C 96 % 1024,6 hPa 0,0 l/m 2 min 0 min 136 W/m 4,2 km/h (1 Bft)
24.11.2014 09:54 6,3 C 5,6 C 96 % 1024,6 hPa 0,0 l/m 2 min 0 min 137 W/m 6,3 km/h (2 Bft)
24.11.2014 09:56 6,3 C 5,6 C 96 % 1024,6 hPa 0,0 l/m 2 min 0 min 140 W/m 8,4 km/h (2 Bft)
24.11.2014 09:58 6,4 C 5,6 C 96 % 1024,6 hPa 0,0 l/m 2 min 0 min 145 W/m 6,3 km/h (2 Bft)
24.11.2014 10:00 6,4 C 5,6 C 96 % 1024,6 hPa 0,0 l/m 2 min 0 min 150 W/m 6,3 km/h (2 Bft)
24.11.2014 10:02 6,4 C 5,6 C 96 % 1024,6 hPa 0,0 l/m 2 min 0 min 153 W/m 8,4 km/h (2 Bft)
24.11.2014 10:04 6,5 C 5,6 C 96 % 1024,6 hPa 0,0 l/m 2 min 0 min 156 W/m 4,2 km/h (1 Bft)
24.11.2014 10:06 6,5 C 5,6 C 97 % 1024,6 hPa 0,0 l/m 2 min 0 min 159 W/m 6,3 km/h (2 Bft)
24.11.2014 10:08 6,6 C 6,1 C 96 % 1024,6 hPa 0,0 l/m 2 min 0 min 162 W/m 8,4 km/h (2 Bft)
24.11.2014 10:10 6,7 C 6,1 C 96 % 1024,7 hPa 0,0 l/m 2 min 0 min 166 W/m 6,3 km/h (2 Bft)
24.11.2014 10:12 6,8 C 6,1 C 97 % 1024,6 hPa 0,0 l/m 2 min 0 min 170 W/m 8,4 km/h (2 Bft)
24.11.2014 10:14 6,9 C 6,1 C 97 % 1024,6 hPa 0,0 l/m 2 min 0 min 174 W/m 4,2 km/h (1 Bft)
24.11.2014 10:16 6,9 C 6,1 C 97 % 1024,6 hPa 0,0 l/m 2 min 0 min 177 W/m 4,2 km/h (1 Bft)
24.11.2014 10:18 7,0 C 6,1 C 97 % 1024,7 hPa 0,0 l/m 2 min 0 min 179 W/m 4,2 km/h (1 Bft)
24.11.2014 10:20 7,1 C 6,1 C 97 % 1024,7 hPa 0,0 l/m 2 min 0 min 184 W/m 6,3 km/h (2 Bft)
24.11.2014 10:22 7,1 C 6,1 C 97 % 1024,6 hPa 0,0 l/m 2 min 0 min 187 W/m 4,2 km/h (1 Bft)
24.11.2014 10:24 7,2 C 6,1 C 97 % 1024,7 hPa 0,0 l/m 2 min 0 min 191 W/m 6,3 km/h (2 Bft)
24.11.2014 10:26 7,2 C 6,1 C 97 % 1024,8 hPa 0,0 l/m 2 min 0 min 192 W/m 6,3 km/h (2 Bft)
24.11.2014 10:28 7,3 C 6,1 C 97 % 1024,8 hPa 0,0 l/m 2 min 0 min 196 W/m 4,2 km/h (1 Bft)
24.11.2014 10:30 7,4 C 6,7 C 97 % 1024,8 hPa 0,0 l/m 2 min 0 min 199 W/m 4,2 km/h (1 Bft)
24.11.2014 10:32 7,4 C 6,7 C 97 % 1024,8 hPa 0,0 l/m 2 min 0 min 203 W/m 6,3 km/h (2 Bft)
24.11.2014 10:34 7,6 C 6,7 C 97 % 1024,8 hPa 0,0 l/m 2 min 0 min 206 W/m 6,3 km/h (2 Bft)
24.11.2014 10:36 7,6 C 6,7 C 97 % 1024,7 hPa 0,0 l/m 2 min 0 min 208 W/m 6,3 km/h (2 Bft)
24.11.2014 10:38 7,7 C 6,7 C 97 % 1024,8 hPa 0,0 l/m 2 min 0 min 210 W/m 6,3 km/h (2 Bft)
24.11.2014 10:40 7,8 C 6,7 C 97 % 1024,8 hPa 0,0 l/m 2 min 0 min 213 W/m 4,2 km/h (1 Bft)
24.11.2014 10:42 7,8 C 6,7 C 97 % 1024,8 hPa 0,0 l/m 2 min 0 min 214 W/m 2,1 km/h (1 Bft)
24.11.2014 10:44 7,9 C 6,7 C 97 % 1024,8 hPa 0,0 l/m 2 min 0 min 218 W/m 6,3 km/h (2 Bft)
24.11.2014 10:46 7,9 C 6,7 C 97 % 1024,8 hPa 0,0 l/m 2 min 0 min 222 W/m 8,4 km/h (2 Bft)
24.11.2014 10:48 8,1 C 6,7 C 98 % 1024,9 hPa 0,0 l/m 2 min 0 min 225 W/m 10,5 km/h (2 Bft)
24.11.2014 10:50 8,1 C 6,7 C 98 % 1024,9 hPa 0,0 l/m 2 min 0 min 225 W/m 8,4 km/h (2 Bft)
24.11.2014 10:52 8,2 C 6,7 C 98 % 1024,9 hPa 0,0 l/m 2 min 0 min 228 W/m 6,3 km/h (2 Bft)
24.11.2014 10:54 8,2 C 6,7 C 97 % 1024,9 hPa 0,0 l/m 2 min 0 min 231 W/m 6,3 km/h (2 Bft)
24.11.2014 10:56 8,3 C 7,2 C 97 % 1025,0 hPa 0,0 l/m 2 min 0 min 232 W/m 8,4 km/h (2 Bft)
24.11.2014 10:58 8,3 C 6,7 C 97 % 1025,0 hPa 0,0 l/m 2 min 0 min 234 W/m 8,4 km/h (2 Bft)
24.11.2014 11:00 8,4 C 6,7 C 97 % 1024,9 hPa 0,0 l/m 2 min 0 min 238 W/m 8,4 km/h (2 Bft)
24.11.2014 11:02 8,4 C 6,7 C 98 % 1025,0 hPa 0,0 l/m 2 min 0 min 240 W/m 6,3 km/h (2 Bft)
24.11.2014 11:04 8,5 C 7,2 C 98 % 1025,0 hPa 0,0 l/m 2 min 0 min 240 W/m 6,3 km/h (2 Bft)
24.11.2014 11:06 8,6 C 7,2 C 97 % 1025,1 hPa 0,0 l/m 2 min 0 min 241 W/m 4,2 km/h (1 Bft)
24.11.2014 11:08 8,6 C 7,2 C 97 % 1025,1 hPa 0,0 l/m 2 min 0 min 244 W/m 8,4 km/h (2 Bft)
24.11.2014 11:10 8,6 C 7,2 C 97 % 1025,1 hPa 0,0 l/m 2 min 0 min 247 W/m 8,4 km/h (2 Bft)
24.11.2014 11:12 8,7 C 7,2 C 97 % 1025,1 hPa 0,0 l/m 2 min 0 min 248 W/m 8,4 km/h (2 Bft)
24.11.2014 11:14 8,7 C 7,2 C 98 % 1025,1 hPa 0,0 l/m 2 min 0 min 250 W/m 10,5 km/h (2 Bft)
24.11.2014 11:16 8,7 C 7,2 C 97 % 1025,1 hPa 0,0 l/m 2 min 0 min 250 W/m 8,4 km/h (2 Bft)
24.11.2014 11:18 8,8 C 7,2 C 97 % 1025,1 hPa 0,0 l/m 2 min 0 min 252 W/m 10,5 km/h (2 Bft)
24.11.2014 11:20 8,8 C 7,2 C 97 % 1025,1 hPa 0,0 l/m 2 min 0 min 254 W/m 6,3 km/h (2 Bft)
24.11.2014 11:22 8,9 C 7,2 C 97 % 1025,1 hPa 0,0 l/m 2 min 0 min 256 W/m 8,4 km/h (2 Bft)
24.11.2014 11:24 8,9 C 7,2 C 97 % 1025,1 hPa 0,0 l/m 2 min 0 min 257 W/m 6,3 km/h (2 Bft)
24.11.2014 11:26 9,0 C 7,2 C 97 % 1025,1 hPa 0,0 l/m 2 min 0 min 260 W/m 10,5 km/h (2 Bft)
24.11.2014 11:28 9,1 C 7,2 C 97 % 1025,1 hPa 0,0 l/m 2 min 0 min 260 W/m 10,5 km/h (2 Bft)
24.11.2014 11:30 9,1 C 7,2 C 97 % 1025,1 hPa 0,0 l/m 2 min 0 min 262 W/m 8,4 km/h (2 Bft)
24.11.2014 11:32 9,2 C 7,2 C 97 % 1025,1 hPa 0,0 l/m 2 min 0 min 265 W/m 10,5 km/h (2 Bft)
24.11.2014 11:34 9,2 C 7,2 C 97 % 1025,1 hPa 0,0 l/m 2 min 0 min 266 W/m 8,4 km/h (2 Bft)
24.11.2014 11:36 9,3 C 7,2 C 97 % 1025,1 hPa 0,0 l/m 2 min 0 min 267 W/m 8,4 km/h (2 Bft)
24.11.2014 11:38 9,3 C 7,2 C 97 % 1025,2 hPa 0,0 l/m 2 min 0 min 267 W/m 4,2 km/h (1 Bft)
24.11.2014 11:40 9,4 C 7,2 C 96 % 1025,1 hPa 0,0 l/m 2 min 0 min 270 W/m 6,3 km/h (2 Bft)
24.11.2014 11:42 9,4 C 7,2 C 96 % 1025,2 hPa 0,0 l/m 2 min 0 min 271 W/m 8,4 km/h (2 Bft)
24.11.2014 11:44 9,5 C 7,2 C 96 % 1025,1 hPa 0,0 l/m 2 min 0 min 272 W/m 8,4 km/h (2 Bft)
24.11.2014 11:46 9,6 C 7,2 C 96 % 1025,1 hPa 0,0 l/m 2 min 0 min 272 W/m 6,3 km/h (2 Bft)
24.11.2014 11:48 9,6 C 7,8 C 96 % 1025,1 hPa 0,0 l/m 2 min 0 min 273 W/m 6,3 km/h (2 Bft)
24.11.2014 11:50 9,7 C 7,2 C 95 % 1025,1 hPa 0,0 l/m 2 min 0 min 277 W/m 4,2 km/h (1 Bft)
24.11.2014 11:52 9,7 C 7,2 C 95 % 1025,1 hPa 0,0 l/m 2 min 0 min 280 W/m 6,3 km/h (2 Bft)
24.11.2014 11:54 9,7 C 7,2 C 95 % 1025,2 hPa 0,0 l/m 2 min 0 min 281 W/m 4,2 km/h (1 Bft)
24.11.2014 11:56 9,8 C 7,8 C 94 % 1025,1 hPa 0,0 l/m 2 min 0 min 283 W/m 8,4 km/h (2 Bft)
24.11.2014 11:58 9,9 C 7,2 C 94 % 1025,1 hPa 0,0 l/m 2 min 0 min 286 W/m 8,4 km/h (2 Bft)
24.11.2014 12:00 9,9 C 7,2 C 93 % 1025,1 hPa 0,0 l/m 2 min 0 min 287 W/m 6,3 km/h (2 Bft)
24.11.2014 12:02 10,0 C 7,2 C 93 % 1025,1 hPa 0,0 l/m 2 min 0 min 288 W/m 4,2 km/h (1 Bft)
24.11.2014 12:06 10,1 C 7,2 C 91 % 1025,1 hPa 0,0 l/m 2 min 0 min 288 W/m 4,2 km/h (1 Bft)
24.11.2014 12:08 10,2 C 7,2 C 91 % 1025,2 hPa 0,0 l/m 2 min 0 min 290 W/m 6,3 km/h (2 Bft)
24.11.2014 12:10 10,2 C 7,2 C 90 % 1025,1 hPa 0,0 l/m 2 min 0 min 294 W/m 6,3 km/h (2 Bft)
24.11.2014 12:12 10,3 C 7,2 C 90 % 1025,1 hPa 0,0 l/m 2 min 0 min 298 W/m 8,4 km/h (2 Bft)
24.11.2014 12:14 10,3 C 7,2 C 89 % 1025,1 hPa 0,0 l/m 2 min 0 min 297 W/m 8,4 km/h (2 Bft)
24.11.2014 12:16 10,4 C 7,8 C 88 % 1025,0 hPa 0,0 l/m 2 min 0 min 292 W/m 8,4 km/h (2 Bft)
24.11.2014 12:18 10,5 C 7,8 C 88 % 1025,0 hPa 0,0 l/m 2 min 0 min 292 W/m 6,3 km/h (2 Bft)
24.11.2014 12:20 10,6 C 7,8 C 87 % 1025,1 hPa 0,0 l/m 2 min 0 min 294 W/m 6,3 km/h (2 Bft)
24.11.2014 12:22 10,6 C 7,8 C 86 % 1025,0 hPa 0,0 l/m 2 min 0 min 295 W/m 6,3 km/h (2 Bft)
24.11.2014 12:24 10,7 C 7,8 C 85 % 1025,1 hPa 0,0 l/m 2 min 0 min 296 W/m 6,3 km/h (2 Bft)
24.11.2014 12:26 10,7 C 7,8 C 84 % 1025,1 hPa 0,0 l/m 2 min 0 min 297 W/m 6,3 km/h (2 Bft)
24.11.2014 12:28 10,7 C 7,8 C 82 % 1025,0 hPa 0,0 l/m 2 min 0 min 295 W/m 8,4 km/h (2 Bft)
24.11.2014 12:30 10,8 C 7,8 C 82 % 1024,9 hPa 0,0 l/m 2 min 0 min 294 W/m 6,3 km/h (2 Bft)
24.11.2014 12:32 10,8 C 7,8 C 81 % 1025,0 hPa 0,0 l/m 2 min 0 min 294 W/m 6,3 km/h (2 Bft)
24.11.2014 12:34 10,9 C 7,2 C 80 % 1025,0 hPa 0,0 l/m 2 min 0 min 292 W/m 6,3 km/h (2 Bft)
24.11.2014 12:36 10,9 C 7,2 C 80 % 1025,1 hPa 0,0 l/m 2 min 0 min 294 W/m 4,2 km/h (1 Bft)
24.11.2014 12:38 11,0 C 7,2 C 79 % 1025,0 hPa 0,0 l/m 2 min 0 min 295 W/m 2,1 km/h (1 Bft)
24.11.2014 12:40 11,1 C 7,2 C 79 % 1024,9 hPa 0,0 l/m 2 min 0 min 293 W/m 4,2 km/h (1 Bft)
24.11.2014 12:42 11,1 C 7,8 C 78 % 1024,9 hPa 0,0 l/m 2 min 0 min 292 W/m 8,4 km/h (2 Bft)
24.11.2014 12:44 11,1 C 7,8 C 77 % 1025,0 hPa 0,0 l/m 2 min 0 min 291 W/m 6,3 km/h (2 Bft)
24.11.2014 12:46 11,2 C 7,8 C 75 % 1025,0 hPa 0,0 l/m 2 min 0 min 288 W/m 8,4 km/h (2 Bft)
24.11.2014 12:48 11,2 C 7,8 C 74 % 1025,1 hPa 0,0 l/m 2 min 0 min 287 W/m 6,3 km/h (2 Bft)
24.11.2014 12:50 11,2 C 7,8 C 72 % 1025,1 hPa 0,0 l/m 2 min 0 min 284 W/m 8,4 km/h (2 Bft)
24.11.2014 12:52 11,2 C 7,8 C 72 % 1025,1 hPa 0,0 l/m 2 min 0 min 283 W/m 8,4 km/h (2 Bft)
24.11.2014 12:54 11,3 C 7,8 C 72 % 1025,1 hPa 0,0 l/m 2 min 0 min 279 W/m 8,4 km/h (2 Bft)
24.11.2014 12:56 11,3 C 7,8 C 71 % 1025,1 hPa 0,0 l/m 2 min 0 min 280 W/m 8,4 km/h (2 Bft)
24.11.2014 12:58 11,3 C 8,3 C 71 % 1025,1 hPa 0,0 l/m 2 min 0 min 283 W/m 12,6 km/h (3 Bft)
24.11.2014 13:00 11,3 C 7,8 C 71 % 1025,1 hPa 0,0 l/m 2 min 0 min 280 W/m 8,4 km/h (2 Bft)
24.11.2014 13:02 11,3 C 8,3 C 71 % 1025,1 hPa 0,0 l/m 2 min 0 min 278 W/m 10,5 km/h (2 Bft)
24.11.2014 13:04 11,3 C 7,8 C 71 % 1025,1 hPa 0,0 l/m 2 min 0 min 278 W/m 10,5 km/h (2 Bft)
24.11.2014 13:06 11,3 C 8,3 C 72 % 1025,1 hPa 0,0 l/m 2 min 0 min 276 W/m 8,4 km/h (2 Bft)
24.11.2014 13:08 11,3 C 8,3 C 71 % 1025,1 hPa 0,0 l/m 2 min 0 min 273 W/m 10,5 km/h (2 Bft)
24.11.2014 13:10 11,3 C 8,3 C 71 % 1025,1 hPa 0,0 l/m 2 min 0 min 274 W/m 10,5 km/h (2 Bft)
24.11.2014 13:12 11,3 C 8,3 C 70 % 1025,1 hPa 0,0 l/m 2 min 0 min 271 W/m 8,4 km/h (2 Bft)
24.11.2014 13:14 11,3 C 8,3 C 70 % 1025,1 hPa 0,0 l/m 2 min 0 min 267 W/m 8,4 km/h (2 Bft)
24.11.2014 13:16 11,4 C 8,3 C 71 % 1025,1 hPa 0,0 l/m 2 min 0 min 267 W/m 8,4 km/h (2 Bft)
24.11.2014 13:18 11,4 C 8,3 C 71 % 1025,1 hPa 0,0 l/m 2 min 0 min 265 W/m 10,5 km/h (2 Bft)
24.11.2014 13:20 11,4 C 8,3 C 71 % 1025,1 hPa 0,0 l/m 2 min 0 min 263 W/m 8,4 km/h (2 Bft)
24.11.2014 13:22 11,4 C 8,3 C 70 % 1025,0 hPa 0,0 l/m 2 min 0 min 261 W/m 6,3 km/h (2 Bft)
24.11.2014 13:24 11,4 C 8,3 C 70 % 1025,1 hPa 0,0 l/m 2 min 0 min 260 W/m 4,2 km/h (1 Bft)
24.11.2014 13:26 11,4 C 8,3 C 71 % 1025,1 hPa 0,0 l/m 2 min 0 min 247 W/m 6,3 km/h (2 Bft)
24.11.2014 13:28 11,4 C 8,3 C 71 % 1025,2 hPa 0,0 l/m 2 min 0 min 243 W/m 8,4 km/h (2 Bft)
24.11.2014 13:30 11,4 C 8,3 C 72 % 1025,2 hPa 0,0 l/m 2 min 0 min 239 W/m 8,4 km/h (2 Bft)
24.11.2014 13:32 11,4 C 8,3 C 71 % 1025,2 hPa 0,0 l/m 2 min 0 min 242 W/m 10,5 km/h (2 Bft)
24.11.2014 13:34 11,4 C 8,9 C 71 % 1025,1 hPa 0,0 l/m 2 min 0 min 247 W/m 12,6 km/h (3 Bft)
24.11.2014 13:36 11,4 C 8,3 C 71 % 1025,2 hPa 0,0 l/m 2 min 0 min 248 W/m 8,4 km/h (2 Bft)
24.11.2014 13:38 11,4 C 8,3 C 70 % 1025,3 hPa 0,0 l/m 2 min 0 min 236 W/m 8,4 km/h (2 Bft)
24.11.2014 13:40 11,5 C 8,3 C 70 % 1025,3 hPa 0,0 l/m 2 min 0 min 232 W/m 10,5 km/h (2 Bft)
24.11.2014 13:42 11,5 C 8,3 C 71 % 1025,2 hPa 0,0 l/m 2 min 0 min 233 W/m 10,5 km/h (2 Bft)
24.11.2014 13:44 11,5 C 8,3 C 70 % 1025,2 hPa 0,0 l/m 2 min 0 min 228 W/m 10,5 km/h (2 Bft)
24.11.2014 13:46 11,5 C 8,3 C 70 % 1025,2 hPa 0,0 l/m 2 min 0 min 227 W/m 8,4 km/h (2 Bft)
24.11.2014 13:48 11,5 C 8,9 C 70 % 1025,2 hPa 0,0 l/m 2 min 0 min 227 W/m 12,6 km/h (3 Bft)
24.11.2014 13:50 11,5 C 8,9 C 70 % 1025,3 hPa 0,0 l/m 2 min 0 min 224 W/m 10,5 km/h (2 Bft)
24.11.2014 13:52 11,5 C 8,3 C 70 % 1025,2 hPa 0,0 l/m 2 min 0 min 219 W/m 6,3 km/h (2 Bft)
24.11.2014 13:54 11,5 C 8,3 C 71 % 1025,2 hPa 0,0 l/m 2 min 0 min 216 W/m 4,2 km/h (1 Bft)
24.11.2014 13:56 11,5 C 8,3 C 71 % 1025,2 hPa 0,0 l/m 2 min 0 min 207 W/m 8,4 km/h (2 Bft)
24.11.2014 13:58 11,5 C 8,3 C 71 % 1025,2 hPa 0,0 l/m 2 min 0 min 210 W/m 6,3 km/h (2 Bft)
24.11.2014 14:00 11,5 C 8,3 C 71 % 1025,3 hPa 0,0 l/m 2 min 0 min 198 W/m 10,5 km/h (2 Bft)
24.11.2014 14:02 11,5 C 8,9 C 70 % 1025,3 hPa 0,0 l/m 2 min 0 min 207 W/m 12,6 km/h (3 Bft)
24.11.2014 14:04 11,4 C 8,3 C 71 % 1025,3 hPa 0,0 l/m 2 min 0 min 206 W/m 6,3 km/h (2 Bft)
24.11.2014 14:06 11,4 C 8,3 C 71 % 1025,2 hPa 0,0 l/m 2 min 0 min 154 W/m 8,4 km/h (2 Bft)
24.11.2014 14:08 11,4 C 8,3 C 72 % 1025,2 hPa 0,0 l/m 0 min 0 min 100 W/m 12,6 km/h (3 Bft)
24.11.2014 14:10 11,4 C 8,3 C 72 % 1025,3 hPa 0,0 l/m 0 min 0 min 112 W/m 10,5 km/h (2 Bft)
24.11.2014 14:12 11,3 C 7,8 C 72 % 1025,2 hPa 0,0 l/m 2 min 0 min 152 W/m 6,3 km/h (2 Bft)
24.11.2014 14:14 11,3 C 7,8 C 72 % 1025,2 hPa 0,0 l/m 2 min 0 min 188 W/m 8,4 km/h (2 Bft)
24.11.2014 14:16 11,2 C 7,8 C 72 % 1025,3 hPa 0,0 l/m 2 min 0 min 194 W/m 6,3 km/h (2 Bft)
24.11.2014 14:18 11,2 C 7,8 C 72 % 1025,3 hPa 0,0 l/m 2 min 0 min 195 W/m 8,4 km/h (2 Bft)
24.11.2014 14:20 11,1 C 7,8 C 72 % 1025,3 hPa 0,0 l/m 2 min 0 min 184 W/m 8,4 km/h (2 Bft)
24.11.2014 14:22 11,1 C 8,3 C 73 % 1025,2 hPa 0,0 l/m 2 min 0 min 166 W/m 10,5 km/h (2 Bft)
24.11.2014 14:24 11,1 C 8,3 C 73 % 1025,2 hPa 0,0 l/m 2 min 0 min 176 W/m 8,4 km/h (2 Bft)
24.11.2014 14:26 11,1 C 8,3 C 73 % 1025,3 hPa 0,0 l/m 2 min 0 min 188 W/m 10,5 km/h (2 Bft)
24.11.2014 14:28 11,1 C 8,3 C 73 % 1025,3 hPa 0,0 l/m 2 min 0 min 188 W/m 10,5 km/h (2 Bft)
24.11.2014 14:30 11,1 C 8,9 C 73 % 1025,3 hPa 0,0 l/m 2 min 0 min 189 W/m 14,6 km/h (3 Bft)
24.11.2014 14:32 11,2 C 8,3 C 73 % 1025,3 hPa 0,0 l/m 2 min 0 min 189 W/m 8,4 km/h (2 Bft)
24.11.2014 14:34 11,2 C 8,3 C 73 % 1025,3 hPa 0,0 l/m 2 min 0 min 183 W/m 6,3 km/h (2 Bft)
24.11.2014 14:36 11,2 C 8,3 C 73 % 1025,3 hPa 0,0 l/m 2 min 0 min 171 W/m 6,3 km/h (2 Bft)
24.11.2014 14:38 11,2 C 8,3 C 73 % 1025,2 hPa 0,0 l/m 2 min 0 min 162 W/m 10,5 km/h (2 Bft)
24.11.2014 14:40 11,2 C 8,9 C 73 % 1025,3 hPa 0,0 l/m 2 min 0 min 147 W/m 8,4 km/h (2 Bft)
24.11.2014 14:42 11,2 C 8,9 C 73 % 1025,3 hPa 0,0 l/m 2 min 0 min 155 W/m 12,6 km/h (3 Bft)
24.11.2014 14:44 11,2 C 8,3 C 73 % 1025,3 hPa 0,0 l/m 2 min 0 min 143 W/m 10,5 km/h (2 Bft)
24.11.2014 14:46 11,2 C 8,3 C 73 % 1025,3 hPa 0,0 l/m 0 min 0 min 87 W/m 8,4 km/h (2 Bft)
24.11.2014 14:48 11,2 C 8,3 C 72 % 1025,4 hPa 0,0 l/m 2 min 0 min 133 W/m 10,5 km/h (2 Bft)
24.11.2014 14:50 11,1 C 8,3 C 72 % 1025,4 hPa 0,0 l/m 2 min 0 min 114 W/m 10,5 km/h (2 Bft)
24.11.2014 14:52 11,1 C 8,9 C 72 % 1025,5 hPa 0,0 l/m 2 min 0 min 111 W/m 14,6 km/h (3 Bft)
24.11.2014 14:54 11,0 C 8,3 C 72 % 1025,4 hPa 0,0 l/m 2 min 0 min 114 W/m 10,5 km/h (2 Bft)
24.11.2014 14:56 11,0 C 8,3 C 72 % 1025,4 hPa 0,0 l/m 2 min 0 min 107 W/m 8,4 km/h (2 Bft)
24.11.2014 14:58 10,9 C 8,3 C 72 % 1025,4 hPa 0,0 l/m 2 min 0 min 101 W/m 10,5 km/h (2 Bft)
24.11.2014 15:00 10,9 C 8,3 C 72 % 1025,5 hPa 0,0 l/m 0 min 0 min 80 W/m 8,4 km/h (2 Bft)
24.11.2014 15:02 10,8 C 8,3 C 72 % 1025,5 hPa 0,0 l/m 0 min 0 min 59 W/m 8,4 km/h (2 Bft)
24.11.2014 15:04 10,8 C 8,3 C 72 % 1025,5 hPa 0,0 l/m 0 min 0 min 82 W/m 8,4 km/h (2 Bft)
24.11.2014 15:06 10,7 C 8,3 C 72 % 1025,5 hPa 0,0 l/m 0 min 0 min 84 W/m 10,5 km/h (2 Bft)
24.11.2014 15:08 10,7 C 7,8 C 72 % 1025,5 hPa 0,0 l/m 0 min 0 min 70 W/m 8,4 km/h (2 Bft)
24.11.2014 15:10 10,7 C 7,8 C 72 % 1025,5 hPa 0,0 l/m 0 min 0 min 52 W/m 8,4 km/h (2 Bft)
24.11.2014 15:12 10,6 C 7,8 C 72 % 1025,5 hPa 0,0 l/m 0 min 0 min 36 W/m 6,3 km/h (2 Bft)
24.11.2014 15:14 10,6 C 7,2 C 72 % 1025,5 hPa 0,0 l/m 0 min 0 min 54 W/m 6,3 km/h (2 Bft)
24.11.2014 15:16 10,6 C 7,2 C 72 % 1025,5 hPa 0,0 l/m 0 min 0 min 66 W/m 2,1 km/h (1 Bft)
24.11.2014 15:18 10,5 C 7,2 C 72 % 1025,5 hPa 0,0 l/m 0 min 0 min 67 W/m 4,2 km/h (1 Bft)
24.11.2014 15:20 10,5 C 6,7 C 73 % 1025,6 hPa 0,0 l/m 0 min 0 min 61 W/m 4,2 km/h (1 Bft)
24.11.2014 15:22 10,4 C 6,7 C 73 % 1025,6 hPa 0,0 l/m 0 min 0 min 56 W/m 6,3 km/h (2 Bft)
24.11.2014 15:24 10,4 C 6,7 C 73 % 1025,6 hPa 0,0 l/m 0 min 0 min 40 W/m 4,2 km/h (1 Bft)
24.11.2014 15:26 10,3 C 6,7 C 73 % 1025,6 hPa 0,0 l/m 0 min 0 min 38 W/m 6,3 km/h (2 Bft)
24.11.2014 15:28 10,3 C 6,7 C 73 % 1025,6 hPa 0,0 l/m 0 min 0 min 39 W/m 6,3 km/h (2 Bft)
24.11.2014 15:30 10,2 C 6,1 C 73 % 1025,6 hPa 0,0 l/m 0 min 0 min 42 W/m 6,3 km/h (2 Bft)
24.11.2014 15:32 10,2 C 6,1 C 73 % 1025,6 hPa 0,0 l/m 0 min 0 min 36 W/m 2,1 km/h (1 Bft)
24.11.2014 15:34 10,1 C 6,1 C 73 % 1025,5 hPa 0,0 l/m 0 min 0 min 35 W/m 2,1 km/h (1 Bft)
24.11.2014 15:36 10,1 C 6,1 C 74 % 1025,6 hPa 0,0 l/m 0 min 0 min 33 W/m 2,1 km/h (1 Bft)
24.11.2014 15:38 10,0 C 6,1 C 73 % 1025,5 hPa 0,0 l/m 0 min 0 min 33 W/m 4,2 km/h (1 Bft)
24.11.2014 15:40 10,0 C 6,1 C 74 % 1025,6 hPa 0,0 l/m 0 min 0 min 33 W/m 2,1 km/h (1 Bft)
24.11.2014 15:42 9,9 C 5,6 C 74 % 1025,6 hPa 0,0 l/m 0 min 0 min 32 W/m 4,2 km/h (1 Bft)
24.11.2014 15:44 9,8 C 5,6 C 74 % 1025,6 hPa 0,0 l/m 0 min 0 min 32 W/m 2,1 km/h (1 Bft)
24.11.2014 15:46 9,8 C 5,6 C 75 % 1025,6 hPa 0,0 l/m 0 min 0 min 30 W/m 4,2 km/h (1 Bft)
24.11.2014 15:48 9,7 C 5,6 C 75 % 1025,6 hPa 0,0 l/m 0 min 0 min 30 W/m 4,2 km/h (1 Bft)
24.11.2014 15:50 9,7 C 5,6 C 75 % 1025,6 hPa 0,0 l/m 0 min 0 min 30 W/m 4,2 km/h (1 Bft)
24.11.2014 15:52 9,6 C 5,6 C 75 % 1025,7 hPa 0,0 l/m 0 min 0 min 29 W/m 4,2 km/h (1 Bft)
24.11.2014 15:54 9,5 C 5,6 C 76 % 1025,6 hPa 0,0 l/m 0 min 0 min 28 W/m 2,1 km/h (1 Bft)
24.11.2014 15:56 9,5 C 5,6 C 76 % 1025,7 hPa 0,0 l/m 0 min 0 min 26 W/m 2,1 km/h (1 Bft)
24.11.2014 15:58 9,4 C 5,6 C 76 % 1025,6 hPa 0,0 l/m 0 min 0 min 25 W/m 4,2 km/h (1 Bft)
24.11.2014 16:00 9,3 C 5,6 C 76 % 1025,6 hPa 0,0 l/m 0 min 0 min 24 W/m 2,1 km/h (1 Bft)
24.11.2014 16:02 9,3 C 5,0 C 76 % 1025,7 hPa 0,0 l/m 0 min 0 min 22 W/m 2,1 km/h (1 Bft)
24.11.2014 16:04 9,2 C 5,0 C 77 % 1025,7 hPa 0,0 l/m 0 min 0 min 19 W/m 2,1 km/h (1 Bft)
24.11.2014 16:06 9,2 C 5,0 C 77 % 1025,6 hPa 0,0 l/m 0 min 0 min 18 W/m 2,1 km/h (1 Bft)
24.11.2014 16:08 9,1 C 5,0 C 77 % 1025,8 hPa 0,0 l/m 0 min 0 min 18 W/m 4,2 km/h (1 Bft)
24.11.2014 16:10 9,0 C 5,0 C 77 % 1025,7 hPa 0,0 l/m 0 min 0 min 17 W/m 4,2 km/h (1 Bft)
24.11.2014 16:12 8,9 C 5,0 C 78 % 1025,8 hPa 0,0 l/m 0 min 0 min 16 W/m 4,2 km/h (1 Bft)
24.11.2014 16:14 8,9 C 5,0 C 78 % 1025,8 hPa 0,0 l/m 0 min 0 min 15 W/m 4,2 km/h (1 Bft)
24.11.2014 16:16 8,8 C 5,0 C 78 % 1025,8 hPa 0,0 l/m 0 min 0 min 14 W/m 4,2 km/h (1 Bft)
24.11.2014 16:18 8,7 C 5,0 C 78 % 1025,8 hPa 0,0 l/m 0 min 0 min 12 W/m 6,3 km/h (2 Bft)
24.11.2014 16:20 8,7 C 5,0 C 79 % 1025,9 hPa 0,0 l/m 0 min 0 min 11 W/m 4,2 km/h (1 Bft)
24.11.2014 16:22 8,6 C 4,4 C 79 % 1025,9 hPa 0,0 l/m 0 min 0 min 11 W/m 2,1 km/h (1 Bft)
24.11.2014 16:24 8,6 C 4,4 C 79 % 1025,9 hPa 0,0 l/m 0 min 0 min 9 W/m 2,1 km/h (1 Bft)
24.11.2014 16:26 8,4 C 4,4 C 80 % 1025,9 hPa 0,0 l/m 0 min 0 min 9 W/m 0,0 km/h (0 Bft)
24.11.2014 16:28 8,4 C 4,4 C 80 % 1026,0 hPa 0,0 l/m 0 min 0 min 7 W/m 0,0 km/h (0 Bft)
24.11.2014 16:30 8,3 C 4,4 C 80 % 1025,9 hPa 0,0 l/m 0 min 0 min 6 W/m 0,0 km/h (0 Bft)
24.11.2014 16:32 8,2 C 4,4 C 80 % 1025,9 hPa 0,0 l/m 0 min 0 min 5 W/m 2,1 km/h (1 Bft)
24.11.2014 16:34 8,2 C 4,4 C 80 % 1025,9 hPa 0,0 l/m 0 min 0 min 5 W/m 2,1 km/h (1 Bft)
24.11.2014 16:36 8,1 C 4,4 C 81 % 1025,9 hPa 0,0 l/m 0 min 0 min 5 W/m 2,1 km/h (1 Bft)
24.11.2014 16:38 8,0 C 4,4 C 81 % 1025,9 hPa 0,0 l/m 0 min 0 min 5 W/m 2,1 km/h (1 Bft)
24.11.2014 16:40 7,9 C 4,4 C 81 % 1025,9 hPa 0,0 l/m 0 min 0 min 5 W/m 2,1 km/h (1 Bft)
24.11.2014 16:42 7,8 C 3,9 C 81 % 1025,9 hPa 0,0 l/m 0 min 0 min 5 W/m 0,0 km/h (0 Bft)
24.11.2014 16:44 7,8 C 3,9 C 81 % 1025,9 hPa 0,0 l/m 0 min 0 min 5 W/m 0,0 km/h (0 Bft)
24.11.2014 16:46 7,7 C 3,9 C 82 % 1026,0 hPa 0,0 l/m 0 min 0 min 5 W/m 0,0 km/h (0 Bft)
24.11.2014 16:48 7,6 C 3,9 C 82 % 1025,9 hPa 0,0 l/m 0 min 0 min 2 W/m 2,1 km/h (1 Bft)
24.11.2014 16:50 7,6 C 3,9 C 82 % 1026,0 hPa 0,0 l/m 0 min 0 min 0 W/m 0,0 km/h (0 Bft)
24.11.2014 16:52 7,4 C 3,9 C 82 % 1026,0 hPa 0,0 l/m 0 min 0 min 0 W/m 0,0 km/h (0 Bft)
24.11.2014 16:54 7,4 C 3,9 C 82 % 1026,0 hPa 0,0 l/m 0 min 0 min 0 W/m 2,1 km/h (1 Bft)
24.11.2014 16:56 7,3 C 3,9 C 82 % 1026,0 hPa 0,0 l/m 0 min 0 min 0 W/m 4,2 km/h (1 Bft)
24.11.2014 16:58 7,3 C 3,9 C 82 % 1026,0 hPa 0,0 l/m 0 min 0 min 0 W/m 4,2 km/h (1 Bft)
24.11.2014 17:00 7,2 C 3,9 C 82 % 1026,0 hPa 0,0 l/m 0 min 0 min 0 W/m 2,1 km/h (1 Bft)
24.11.2014 17:02 7,2 C 3,9 C 83 % 1026,0 hPa 0,0 l/m 0 min 0 min 0 W/m 2,1 km/h (1 Bft)
24.11.2014 17:04 7,1 C 3,9 C 83 % 1026,1 hPa 0,0 l/m 0 min 0 min 0 W/m 0,0 km/h (0 Bft)
24.11.2014 17:06 7,0 C 3,3 C 83 % 1026,0 hPa 0,0 l/m 0 min 0 min 0 W/m 0,0 km/h (0 Bft)
24.11.2014 17:08 6,9 C 3,3 C 83 % 1026,0 hPa 0,0 l/m 0 min 0 min 0 W/m 0,0 km/h (0 Bft)
24.11.2014 17:10 6,8 C 3,3 C 83 % 1026,0 hPa 0,0 l/m 0 min 0 min 0 W/m 0,0 km/h (0 Bft)
24.11.2014 17:12 6,8 C 3,3 C 83 % 1025,9 hPa 0,0 l/m 0 min 0 min 0 W/m 0,0 km/h (0 Bft)
24.11.2014 17:14 6,7 C 3,3 C 83 % 1026,0 hPa 0,0 l/m 0 min 0 min 0 W/m 0,0 km/h (0 Bft)
24.11.2014 17:16 6,7 C 3,3 C 83 % 1026,0 hPa 0,0 l/m 0 min 0 min 0 W/m 0,0 km/h (0 Bft)
24.11.2014 17:18 6,6 C 3,3 C 83 % 1026,0 hPa 0,0 l/m 0 min 0 min 0 W/m 0,0 km/h (0 Bft)
24.11.2014 17:20 6,5 C 3,3 C 84 % 1026,1 hPa 0,0 l/m 0 min 0 min 0 W/m 2,1 km/h (1 Bft)
24.11.2014 17:22 6,5 C 3,3 C 84 % 1026,1 hPa 0,0 l/m 0 min 0 min 0 W/m 2,1 km/h (1 Bft)
24.11.2014 17:24 6,4 C 3,3 C 84 % 1026,1 hPa 0,0 l/m 0 min 0 min 0 W/m 2,1 km/h (1 Bft)
24.11.2014 17:26 6,4 C 3,3 C 84 % 1026,1 hPa 0,0 l/m 0 min 0 min 0 W/m 4,2 km/h (1 Bft)
24.11.2014 17:28 6,3 C 3,3 C 84 % 1026,2 hPa 0,0 l/m 0 min 0 min 0 W/m 2,1 km/h (1 Bft)
24.11.2014 17:30 6,3 C 3,3 C 84 % 1026,1 hPa 0,0 l/m 0 min 0 min 0 W/m 2,1 km/h (1 Bft)
24.11.2014 17:32 6,2 C 3,3 C 85 % 1026,2 hPa 0,0 l/m 0 min 0 min 0 W/m 2,1 km/h (1 Bft)
24.11.2014 17:34 6,2 C 3,3 C 84 % 1026,2 hPa 0,0 l/m 0 min 0 min 0 W/m 2,1 km/h (1 Bft)
24.11.2014 17:36 6,1 C 3,3 C 84 % 1026,3 hPa 0,0 l/m 0 min 0 min 0 W/m 2,1 km/h (1 Bft)
24.11.2014 17:38 6,1 C 2,8 C 85 % 1026,2 hPa 0,0 l/m 0 min 0 min 0 W/m 4,2 km/h (1 Bft)
24.11.2014 17:40 6,0 C 2,8 C 85 % 1026,2 hPa 0,0 l/m 0 min 0 min 0 W/m 4,2 km/h (1 Bft)
24.11.2014 17:42 5,9 C 2,8 C 85 % 1026,3 hPa 0,0 l/m 0 min 0 min 0 W/m 4,2 km/h (1 Bft)
24.11.2014 17:44 5,9 C 2,8 C 85 % 1026,3 hPa 0,0 l/m 0 min 0 min 0 W/m 4,2 km/h (1 Bft)
24.11.2014 17:46 5,8 C 2,8 C 85 % 1026,3 hPa 0,0 l/m 0 min 0 min 0 W/m 2,1 km/h (1 Bft)
24.11.2014 17:48 5,8 C 2,8 C 85 % 1026,3 hPa 0,0 l/m 0 min 0 min 0 W/m 0,0 km/h (0 Bft)
24.11.2014 17:50 5,8 C 2,8 C 86 % 1026,3 hPa 0,0 l/m 0 min 0 min 0 W/m 0,0 km/h (0 Bft)
24.11.2014 17:52 5,7 C 2,8 C 86 % 1026,3 hPa 0,0 l/m 0 min 0 min 0 W/m 2,1 km/h (1 Bft)
24.11.2014 17:54 5,7 C 2,8 C 85 % 1026,3 hPa 0,0 l/m 0 min 0 min 0 W/m 0,0 km/h (0 Bft)
24.11.2014 17:56 5,6 C 2,8 C 86 % 1026,3 hPa 0,0 l/m 0 min 0 min 0 W/m 0,0 km/h (0 Bft)
24.11.2014 17:58 5,6 C 2,8 C 86 % 1026,3 hPa 0,0 l/m 0 min 0 min 0 W/m 0,0 km/h (0 Bft)
24.11.2014 18:00 5,5 C 2,8 C 86 % 1026,4 hPa 0,0 l/m 0 min 0 min 0 W/m 0,0 km/h (0 Bft)
24.11.2014 18:02 5,4 C 2,8 C 86 % 1026,4 hPa 0,0 l/m 0 min 0 min 0 W/m 0,0 km/h (0 Bft)
24.11.2014 18:05 5,4 C 2,8 C 86 % 1026,4 hPa 0,0 l/m 0 min 0 min 0 W/m 0,0 km/h (0 Bft)
24.11.2014 18:06 5,3 C 2,8 C 86 % 1026,4 hPa 0,0 l/m 0 min 0 min 0 W/m 0,0 km/h (0 Bft)
24.11.2014 18:08 5,3 C 2,8 C 86 % 1026,4 hPa 0,0 l/m 0 min 0 min 0 W/m 2,1 km/h (1 Bft)
24.11.2014 18:10 5,2 C 2,8 C 86 % 1026,4 hPa 0,0 l/m 0 min 0 min 0 W/m 2,1 km/h (1 Bft)
24.11.2014 18:12 5,2 C 2,8 C 86 % 1026,4 hPa 0,0 l/m 0 min 0 min 0 W/m 0,0 km/h (0 Bft)
24.11.2014 18:14 5,2 C 2,8 C 86 % 1026,4 hPa 0,0 l/m 0 min 0 min 0 W/m 2,1 km/h (1 Bft)
24.11.2014 18:16 5,1 C 2,8 C 86 % 1026,5 hPa 0,0 l/m 0 min 0 min 0 W/m 2,1 km/h (1 Bft)
24.11.2014 18:18 5,1 C 2,8 C 86 % 1026,5 hPa 0,0 l/m 0 min 0 min 0 W/m 2,1 km/h (1 Bft)
24.11.2014 18:20 5,0 C 2,8 C 86 % 1026,5 hPa 0,0 l/m 0 min 0 min 0 W/m 0,0 km/h (0 Bft)
24.11.2014 18:22 5,0 C 2,8 C 86 % 1026,5 hPa 0,0 l/m 0 min 0 min 0 W/m 2,1 km/h (1 Bft)
24.11.2014 18:24 4,9 C 2,8 C 87 % 1026,5 hPa 0,0 l/m 0 min 0 min 0 W/m 2,1 km/h (1 Bft)
24.11.2014 18:26 4,9 C 2,8 C 87 % 1026,5 hPa 0,0 l/m 0 min 0 min 0 W/m 2,1 km/h (1 Bft)
24.11.2014 18:28 4,9 C 2,8 C 87 % 1026,5 hPa 0,0 l/m 0 min 0 min 0 W/m 2,1 km/h (1 Bft)
24.11.2014 18:30 4,8 C 2,2 C 87 % 1026,6 hPa 0,0 l/m 0 min 0 min 0 W/m 2,1 km/h (1 Bft)
24.11.2014 18:32 4,8 C 2,2 C 87 % 1026,6 hPa 0,0 l/m 0 min 0 min 0 W/m 0,0 km/h (0 Bft)
24.11.2014 18:34 4,7 C 2,2 C 87 % 1026,6 hPa 0,0 l/m 0 min 0 min 0 W/m 0,0 km/h (0 Bft)
24.11.2014 18:36 4,7 C 2,2 C 87 % 1026,7 hPa 0,0 l/m 0 min 0 min 0 W/m 0,0 km/h (0 Bft)
24.11.2014 18:38 4,7 C 2,2 C 87 % 1026,7 hPa 0,0 l/m 0 min 0 min 0 W/m 0,0 km/h (0 Bft)
24.11.2014 18:40 4,6 C 2,2 C 87 % 1026,7 hPa 0,0 l/m 0 min 0 min 0 W/m 0,0 km/h (0 Bft)
24.11.2014 18:42 4,6 C 2,2 C 87 % 1026,6 hPa 0,0 l/m 0 min 0 min 0 W/m 2,1 km/h (1 Bft)
24.11.2014 18:44 4,6 C 2,2 C 88 % 1026,7 hPa 0,0 l/m 0 min 0 min 0 W/m 2,1 km/h (1 Bft)
24.11.2014 18:46 4,6 C 2,2 C 87 % 1026,7 hPa 0,0 l/m 0 min 0 min 0 W/m 2,1 km/h (1 Bft)
24.11.2014 18:48 4,5 C 2,2 C 88 % 1026,7 hPa 0,0 l/m 0 min 0 min 0 W/m 2,1 km/h (1 Bft)
24.11.2014 18:50 4,4 C 2,2 C 88 % 1026,7 hPa 0,0 l/m 0 min 0 min 0 W/m 2,1 km/h (1 Bft)
24.11.2014 18:52 4,4 C 2,2 C 88 % 1026,7 hPa 0,0 l/m 0 min 0 min 0 W/m 2,1 km/h (1 Bft)
24.11.2014 18:54 4,4 C 2,2 C 88 % 1026,8 hPa 0,0 l/m 0 min 0 min 0 W/m 0,0 km/h (0 Bft)
24.11.2014 18:56 4,4 C 2,2 C 88 % 1026,7 hPa 0,0 l/m 0 min 0 min 0 W/m 0,0 km/h (0 Bft)
24.11.2014 18:58 4,4 C 2,2 C 88 % 1026,7 hPa 0,0 l/m 0 min 0 min 0 W/m 2,1 km/h (1 Bft)
24.11.2014 19:00 4,3 C 2,2 C 88 % 1026,8 hPa 0,0 l/m 0 min 0 min 0 W/m 2,1 km/h (1 Bft)
24.11.2014 19:02 4,3 C 2,2 C 88 % 1026,7 hPa 0,0 l/m 0 min 0 min 0 W/m 2,1 km/h (1 Bft)
24.11.2014 19:04 4,3 C 2,2 C 88 % 1026,8 hPa 0,0 l/m 0 min 0 min 0 W/m 2,1 km/h (1 Bft)
24.11.2014 19:06 4,3 C 2,2 C 89 % 1026,7 hPa 0,0 l/m 0 min 0 min 0 W/m 2,1 km/h (1 Bft)
24.11.2014 19:08 4,2 C 2,2 C 89 % 1026,7 hPa 0,0 l/m 0 min 0 min 0 W/m 2,1 km/h (1 Bft)
24.11.2014 19:10 4,2 C 2,2 C 89 % 1026,8 hPa 0,0 l/m 0 min 0 min 0 W/m 2,1 km/h (1 Bft)
24.11.2014 19:12 4,2 C 2,2 C 89 % 1026,7 hPa 0,0 l/m 0 min 0 min 0 W/m 2,1 km/h (1 Bft)
24.11.2014 19:14 4,2 C 2,2 C 89 % 1026,7 hPa 0,0 l/m 0 min 0 min 0 W/m 2,1 km/h (1 Bft)
24.11.2014 19:16 4,1 C 2,2 C 89 % 1026,8 hPa 0,0 l/m 0 min 0 min 0 W/m 2,1 km/h (1 Bft)
24.11.2014 19:18 4,1 C 2,2 C 89 % 1026,8 hPa 0,0 l/m 0 min 0 min 0 W/m 2,1 km/h (1 Bft)
24.11.2014 19:20 4,1 C 2,2 C 89 % 1026,8 hPa 0,0 l/m 0 min 0 min 0 W/m 0,0 km/h (0 Bft)
24.11.2014 19:22 4,0 C 1,7 C 89 % 1026,7 hPa 0,0 l/m 0 min 0 min 0 W/m 2,1 km/h (1 Bft)
24.11.2014 19:24 4,0 C 1,7 C 89 % 1026,7 hPa 0,0 l/m 0 min 0 min 0 W/m 4,2 km/h (1 Bft)
24.11.2014 19:26 4,0 C 1,7 C 89 % 1026,8 hPa 0,0 l/m 0 min 0 min 0 W/m 6,3 km/h (2 Bft)
24.11.2014 19:28 3,9 C 1,7 C 89 % 1026,8 hPa 0,0 l/m 0 min 0 min 0 W/m 6,3 km/h (2 Bft)
24.11.2014 19:30 3,9 C 1,7 C 89 % 1026,8 hPa 0,0 l/m 0 min 0 min 0 W/m 4,2 km/h (1 Bft)
24.11.2014 19:32 3,9 C 1,7 C 89 % 1026,8 hPa 0,0 l/m 0 min 0 min 0 W/m 2,1 km/h (1 Bft)
24.11.2014 19:34 3,9 C 1,7 C 89 % 1026,9 hPa 0,0 l/m 0 min 0 min 0 W/m 0,0 km/h (0 Bft)
24.11.2014 19:36 3,8 C 1,7 C 89 % 1026,9 hPa 0,0 l/m 0 min 0 min 0 W/m 0,0 km/h (0 Bft)
24.11.2014 19:38 3,8 C 1,7 C 89 % 1026,8 hPa 0,0 l/m 0 min 0 min 0 W/m 0,0 km/h (0 Bft)
24.11.2014 19:40 3,8 C 1,7 C 89 % 1026,8 hPa 0,0 l/m 0 min 0 min 0 W/m 0,0 km/h (0 Bft)
24.11.2014 19:42 3,8 C 1,7 C 89 % 1026,8 hPa 0,0 l/m 0 min 0 min 0 W/m 2,1 km/h (1 Bft)
24.11.2014 19:44 3,7 C 1,7 C 90 % 1026,9 hPa 0,0 l/m 0 min 0 min 0 W/m 6,3 km/h (2 Bft)
24.11.2014 19:46 3,7 C 2,2 C 90 % 1026,9 hPa 0,0 l/m 0 min 0 min 0 W/m 6,3 km/h (2 Bft)
24.11.2014 19:48 3,7 C 2,2 C 90 % 1026,9 hPa 0,0 l/m 0 min 0 min 0 W/m 4,2 km/h (1 Bft)
24.11.2014 19:50 3,7 C 1,7 C 90 % 1026,9 hPa 0,0 l/m 0 min 0 min 0 W/m 2,1 km/h (1 Bft)
24.11.2014 19:52 3,6 C 1,7 C 90 % 1026,9 hPa 0,0 l/m 0 min 0 min 0 W/m 0,0 km/h (0 Bft)
24.11.2014 19:54 3,6 C 1,7 C 90 % 1026,9 hPa 0,0 l/m 0 min 0 min 0 W/m 2,1 km/h (1 Bft)
24.11.2014 19:56 3,6 C 1,7 C 90 % 1026,9 hPa 0,0 l/m 0 min 0 min 0 W/m 4,2 km/h (1 Bft)
24.11.2014 19:58 3,6 C 2,2 C 90 % 1026,9 hPa 0,0 l/m 0 min 0 min 0 W/m 4,2 km/h (1 Bft)
24.11.2014 20:00 3,6 C 2,2 C 90 % 1026,9 hPa 0,0 l/m 0 min 0 min 0 W/m 4,2 km/h (1 Bft)
24.11.2014 20:02 3,6 C 1,7 C 91 % 1026,9 hPa 0,0 l/m 0 min 0 min 0 W/m 4,2 km/h (1 Bft)
24.11.2014 20:04 3,5 C 1,7 C 91 % 1026,9 hPa 0,0 l/m 0 min 0 min 0 W/m 2,1 km/h (1 Bft)
24.11.2014 20:06 3,5 C 1,7 C 91 % 1027,0 hPa 0,0 l/m 0 min 0 min 0 W/m 2,1 km/h (1 Bft)
24.11.2014 20:08 3,4 C 1,7 C 91 % 1027,0 hPa 0,0 l/m 0 min 0 min 0 W/m 2,1 km/h (1 Bft)
24.11.2014 20:10 3,4 C 1,7 C 91 % 1027,0 hPa 0,0 l/m 0 min 0 min 0 W/m 2,1 km/h (1 Bft)
24.11.2014 20:12 3,4 C 1,7 C 91 % 1027,0 hPa 0,0 l/m 0 min 0 min 0 W/m 2,1 km/h (1 Bft)
24.11.2014 20:14 3,4 C 1,7 C 91 % 1027,0 hPa 0,0 l/m 0 min 0 min 0 W/m 0,0 km/h (0 Bft)
24.11.2014 20:16 3,4 C 1,7 C 91 % 1027,0 hPa 0,0 l/m 0 min 0 min 0 W/m 2,1 km/h (1 Bft)
24.11.2014 20:18 3,4 C 1,7 C 91 % 1027,0 hPa 0,0 l/m 0 min 0 min 0 W/m 2,1 km/h (1 Bft)
24.11.2014 20:20 3,3 C 1,7 C 91 % 1027,1 hPa 0,0 l/m 0 min 0 min 0 W/m 2,1 km/h (1 Bft)
24.11.2014 20:22 3,3 C 1,1 C 91 % 1027,1 hPa 0,0 l/m 0 min 0 min 0 W/m 2,1 km/h (1 Bft)
24.11.2014 20:24 3,3 C 1,1 C 91 % 1027,1 hPa 0,0 l/m 0 min 0 min 0 W/m 6,3 km/h (2 Bft)
24.11.2014 20:26 3,3 C 1,7 C 91 % 1027,1 hPa 0,0 l/m 0 min 0 min 0 W/m 6,3 km/h (2 Bft)
24.11.2014 20:28 3,2 C 1,7 C 91 % 1027,1 hPa 0,0 l/m 0 min 0 min 0 W/m 2,1 km/h (1 Bft)
24.11.2014 20:30 3,2 C 1,7 C 91 % 1027,0 hPa 0,0 l/m 0 min 0 min 0 W/m 0,0 km/h (0 Bft)
24.11.2014 20:32 3,2 C 1,7 C 91 % 1027,1 hPa 0,0 l/m 0 min 0 min 0 W/m 2,1 km/h (1 Bft)
24.11.2014 20:34 3,2 C 1,1 C 91 % 1027,1 hPa 0,0 l/m 0 min 0 min 0 W/m 2,1 km/h (1 Bft)
24.11.2014 20:36 3,1 C 1,1 C 91 % 1027,1 hPa 0,0 l/m 0 min 0 min 0 W/m 2,1 km/h (1 Bft)
24.11.2014 20:38 3,1 C 1,1 C 91 % 1027,2 hPa 0,0 l/m 0 min 0 min 0 W/m 2,1 km/h (1 Bft)
24.11.2014 20:40 3,1 C 1,1 C 91 % 1027,1 hPa 0,0 l/m 0 min 0 min 0 W/m 0,0 km/h (0 Bft)
24.11.2014 20:42 3,1 C 1,1 C 91 % 1027,1 hPa 0,0 l/m 0 min 0 min 0 W/m 0,0 km/h (0 Bft)
24.11.2014 20:44 3,0 C 1,1 C 91 % 1027,1 hPa 0,0 l/m 0 min 0 min 0 W/m 0,0 km/h (0 Bft)
24.11.2014 20:46 3,0 C 1,1 C 91 % 1027,1 hPa 0,0 l/m 0 min 0 min 0 W/m 2,1 km/h (1 Bft)
24.11.2014 20:48 2,9 C 1,1 C 91 % 1027,1 hPa 0,0 l/m 0 min 0 min 0 W/m 2,1 km/h (1 Bft)
24.11.2014 20:50 2,9 C 1,1 C 91 % 1027,1 hPa 0,0 l/m 0 min 0 min 0 W/m 0,0 km/h (0 Bft)
24.11.2014 20:52 2,9 C 1,1 C 91 % 1027,2 hPa 0,0 l/m 0 min 0 min 0 W/m 4,2 km/h (1 Bft)
24.11.2014 20:54 2,9 C 1,1 C 91 % 1027,2 hPa 0,0 l/m 0 min 0 min 0 W/m 4,2 km/h (1 Bft)
24.11.2014 20:56 2,8 C 1,1 C 91 % 1027,2 hPa 0,0 l/m 0 min 0 min 0 W/m 4,2 km/h (1 Bft)
24.11.2014 20:58 2,8 C 1,1 C 92 % 1027,2 hPa 0,0 l/m 0 min 0 min 0 W/m 4,2 km/h (1 Bft)
24.11.2014 21:00 2,8 C 1,1 C 92 % 1027,2 hPa 0,0 l/m 0 min 0 min 0 W/m 4,2 km/h (1 Bft)
24.11.2014 21:02 2,8 C 1,1 C 92 % 1027,2 hPa 0,0 l/m 0 min 0 min 0 W/m 2,1 km/h (1 Bft)
24.11.2014 21:04 2,7 C 1,1 C 92 % 1027,2 hPa 0,0 l/m 0 min 0 min 0 W/m 2,1 km/h (1 Bft)
24.11.2014 21:06 2,7 C 1,1 C 92 % 1027,2 hPa 0,0 l/m 0 min 0 min 0 W/m 2,1 km/h (1 Bft)
24.11.2014 21:08 2,7 C 1,1 C 92 % 1027,2 hPa 0,0 l/m 0 min 0 min 0 W/m 2,1 km/h (1 Bft)
24.11.2014 21:10 2,7 C 1,1 C 92 % 1027,2 hPa 0,0 l/m 0 min 0 min 0 W/m 4,2 km/h (1 Bft)
24.11.2014 21:12 2,7 C 1,1 C 92 % 1027,2 hPa 0,0 l/m 0 min 0 min 0 W/m 2,1 km/h (1 Bft)
24.11.2014 21:14 2,7 C 1,1 C 92 % 1027,3 hPa 0,0 l/m 0 min 0 min 0 W/m 2,1 km/h (1 Bft)
24.11.2014 21:16 2,7 C 1,1 C 92 % 1027,3 hPa 0,0 l/m 0 min 0 min 0 W/m 0,0 km/h (0 Bft)
24.11.2014 21:18 2,6 C 1,1 C 92 % 1027,3 hPa 0,0 l/m 0 min 0 min 0 W/m 0,0 km/h (0 Bft)
24.11.2014 21:20 2,6 C 1,1 C 92 % 1027,2 hPa 0,0 l/m 0 min 0 min 0 W/m 0,0 km/h (0 Bft)
24.11.2014 21:22 2,6 C 1,1 C 92 % 1027,2 hPa 0,0 l/m 0 min 0 min 0 W/m 2,1 km/h (1 Bft)
24.11.2014 21:24 2,6 C 1,1 C 92 % 1027,2 hPa 0,0 l/m 0 min 0 min 0 W/m 2,1 km/h (1 Bft)
24.11.2014 21:26 2,6 C 1,1 C 92 % 1027,4 hPa 0,0 l/m 0 min 0 min 0 W/m 2,1 km/h (1 Bft)
24.11.2014 21:28 2,6 C 1,1 C 92 % 1027,3 hPa 0,0 l/m 0 min 0 min 0 W/m 0,0 km/h (0 Bft)
24.11.2014 21:30 2,5 C 1,1 C 92 % 1027,3 hPa 0,0 l/m 0 min 0 min 0 W/m 0,0 km/h (0 Bft)
24.11.2014 21:32 2,5 C 1,1 C 92 % 1027,3 hPa 0,0 l/m 0 min 0 min 0 W/m 0,0 km/h (0 Bft)
24.11.2014 21:34 2,5 C 1,1 C 92 % 1027,3 hPa 0,0 l/m 0 min 0 min 0 W/m 0,0 km/h (0 Bft)
24.11.2014 21:36 2,5 C 1,1 C 92 % 1027,3 hPa 0,0 l/m 0 min 0 min 0 W/m 2,1 km/h (1 Bft)
24.11.2014 21:38 2,4 C 1,1 C 92 % 1027,3 hPa 0,0 l/m 0 min 0 min 0 W/m 2,1 km/h (1 Bft)
24.11.2014 21:40 2,4 C 1,1 C 92 % 1027,3 hPa 0,0 l/m 0 min 0 min 0 W/m 2,1 km/h (1 Bft)
24.11.2014 21:42 2,4 C 1,1 C 92 % 1027,2 hPa 0,0 l/m 0 min 0 min 0 W/m 0,0 km/h (0 Bft)
24.11.2014 21:44 2,4 C 0,6 C 92 % 1027,2 hPa 0,0 l/m 0 min 0 min 0 W/m 0,0 km/h (0 Bft)
24.11.2014 21:46 2,3 C 0,6 C 92 % 1027,2 hPa 0,0 l/m 0 min 0 min 0 W/m 0,0 km/h (0 Bft)
24.11.2014 21:48 2,3 C 0,6 C 92 % 1027,2 hPa 0,0 l/m 0 min 0 min 0 W/m 2,1 km/h (1 Bft)
24.11.2014 21:50 2,3 C 0,6 C 92 % 1027,2 hPa 0,0 l/m 0 min 0 min 0 W/m 2,1 km/h (1 Bft)
24.11.2014 21:52 2,3 C 0,6 C 92 % 1027,2 hPa 0,0 l/m 0 min 0 min 0 W/m 2,1 km/h (1 Bft)
24.11.2014 21:54 2,2 C 0,6 C 92 % 1027,1 hPa 0,0 l/m 0 min 0 min 0 W/m 2,1 km/h (1 Bft)
24.11.2014 21:56 2,2 C 0,6 C 92 % 1027,1 hPa 0,0 l/m 0 min 0 min 0 W/m 2,1 km/h (1 Bft)
24.11.2014 21:58 2,2 C 0,6 C 92 % 1027,1 hPa 0,0 l/m 0 min 0 min 0 W/m 2,1 km/h (1 Bft)
24.11.2014 22:00 2,1 C 0,6 C 92 % 1027,1 hPa 0,0 l/m 0 min 0 min 0 W/m 0,0 km/h (0 Bft)
24.11.2014 22:02 2,1 C 0,6 C 92 % 1027,2 hPa 0,0 l/m 0 min 0 min 0 W/m 0,0 km/h (0 Bft)
24.11.2014 22:04 2,1 C 0,6 C 92 % 1027,2 hPa 0,0 l/m 0 min 0 min 0 W/m 0,0 km/h (0 Bft)
24.11.2014 22:06 2,1 C 0,6 C 92 % 1027,2 hPa 0,0 l/m 0 min 0 min 0 W/m 0,0 km/h (0 Bft)
24.11.2014 22:08 2,0 C 0,6 C 92 % 1027,2 hPa 0,0 l/m 0 min 0 min 0 W/m 0,0 km/h (0 Bft)
24.11.2014 22:10 2,0 C 0,6 C 92 % 1027,1 hPa 0,0 l/m 0 min 0 min 0 W/m 2,1 km/h (1 Bft)
24.11.2014 22:12 2,0 C 0,6 C 92 % 1027,1 hPa 0,0 l/m 0 min 0 min 0 W/m 2,1 km/h (1 Bft)
24.11.2014 22:14 1,9 C 0,6 C 92 % 1027,1 hPa 0,0 l/m 0 min 0 min 0 W/m 2,1 km/h (1 Bft)
24.11.2014 22:16 1,9 C 0,6 C 92 % 1027,1 hPa 0,0 l/m 0 min 0 min 0 W/m 2,1 km/h (1 Bft)
24.11.2014 22:18 1,9 C 0,6 C 92 % 1027,1 hPa 0,0 l/m 0 min 0 min 0 W/m 2,1 km/h (1 Bft)
24.11.2014 22:20 1,8 C 0,6 C 92 % 1027,2 hPa 0,0 l/m 0 min 0 min 0 W/m 0,0 km/h (0 Bft)
24.11.2014 22:22 1,8 C 0,6 C 92 % 1027,2 hPa 0,0 l/m 0 min 0 min 0 W/m 0,0 km/h (0 Bft)
24.11.2014 22:24 1,8 C 0,6 C 92 % 1027,1 hPa 0,0 l/m 0 min 0 min 0 W/m 2,1 km/h (1 Bft)
24.11.2014 22:26 1,8 C 0,6 C 92 % 1027,2 hPa 0,0 l/m 0 min 0 min 0 W/m 4,2 km/h (1 Bft)
24.11.2014 22:28 1,8 C 0,6 C 92 % 1027,1 hPa 0,0 l/m 0 min 0 min 0 W/m 4,2 km/h (1 Bft)
24.11.2014 22:30 1,8 C 0,6 C 92 % 1027,1 hPa 0,0 l/m 0 min 0 min 0 W/m 2,1 km/h (1 Bft)
24.11.2014 22:32 1,7 C 0,6 C 92 % 1027,1 hPa 0,0 l/m 0 min 0 min 0 W/m 2,1 km/h (1 Bft)
24.11.2014 22:34 1,7 C 0,6 C 92 % 1027,2 hPa 0,0 l/m 0 min 0 min 0 W/m 2,1 km/h (1 Bft)
24.11.2014 22:36 1,7 C 0,6 C 92 % 1027,1 hPa 0,0 l/m 0 min 0 min 0 W/m 2,1 km/h (1 Bft)
24.11.2014 22:38 1,7 C 0,6 C 93 % 1027,1 hPa 0,0 l/m 0 min 0 min 0 W/m 4,2 km/h (1 Bft)
24.11.2014 22:40 1,7 C 0,6 C 93 % 1027,1 hPa 0,0 l/m 0 min 0 min 0 W/m 4,2 km/h (1 Bft)
24.11.2014 22:42 1,7 C 0,6 C 93 % 1027,1 hPa 0,0 l/m 0 min 0 min 0 W/m 4,2 km/h (1 Bft)
24.11.2014 22:44 1,7 C 0,6 C 93 % 1027,1 hPa 0,0 l/m 0 min 0 min 0 W/m 2,1 km/h (1 Bft)
24.11.2014 22:46 1,7 C 0,6 C 93 % 1027,1 hPa 0,0 l/m 0 min 0 min 0 W/m 2,1 km/h (1 Bft)
24.11.2014 22:48 1,7 C 0,6 C 93 % 1027,1 hPa 0,0 l/m 0 min 0 min 0 W/m 2,1 km/h (1 Bft)
24.11.2014 22:50 1,6 C 0,6 C 93 % 1027,1 hPa 0,0 l/m 0 min 0 min 0 W/m 4,2 km/h (1 Bft)
24.11.2014 22:52 1,6 C 0,6 C 93 % 1027,1 hPa 0,0 l/m 0 min 0 min 0 W/m 6,3 km/h (2 Bft)
24.11.2014 22:54 1,6 C 0,6 C 93 % 1027,1 hPa 0,0 l/m 0 min 0 min 0 W/m 4,2 km/h (1 Bft)
24.11.2014 22:56 1,6 C 0,6 C 93 % 1027,1 hPa 0,0 l/m 0 min 0 min 0 W/m 4,2 km/h (1 Bft)
24.11.2014 22:58 1,6 C 0,6 C 93 % 1027,1 hPa 0,0 l/m 0 min 0 min 0 W/m 2,1 km/h (1 Bft)
24.11.2014 23:00 1,6 C 0,6 C 93 % 1027,2 hPa 0,0 l/m 0 min 0 min 0 W/m 2,1 km/h (1 Bft)
24.11.2014 23:02 1,6 C 0,6 C 93 % 1027,1 hPa 0,0 l/m 0 min 0 min 0 W/m 2,1 km/h (1 Bft)
24.11.2014 23:04 1,6 C 0,6 C 93 % 1027,1 hPa 0,0 l/m 0 min 0 min 0 W/m 2,1 km/h (1 Bft)
24.11.2014 23:06 1,6 C 0,6 C 93 % 1027,2 hPa 0,0 l/m 0 min 0 min 0 W/m 2,1 km/h (1 Bft)
24.11.2014 23:08 1,6 C 0,6 C 93 % 1027,2 hPa 0,0 l/m 0 min 0 min 0 W/m 2,1 km/h (1 Bft)
24.11.2014 23:10 1,5 C 0,6 C 93 % 1027,2 hPa 0,0 l/m 0 min 0 min 0 W/m 0,0 km/h (0 Bft)
24.11.2014 23:12 1,5 C 0,0 C 93 % 1027,2 hPa 0,0 l/m 0 min 0 min 0 W/m 2,1 km/h (1 Bft)
24.11.2014 23:14 1,5 C 0,0 C 93 % 1027,2 hPa 0,0 l/m 0 min 0 min 0 W/m 2,1 km/h (1 Bft)
24.11.2014 23:16 1,5 C 0,0 C 93 % 1027,2 hPa 0,0 l/m 0 min 0 min 0 W/m 0,0 km/h (0 Bft)
24.11.2014 23:18 1,5 C 0,0 C 93 % 1027,2 hPa 0,0 l/m 0 min 0 min 0 W/m 0,0 km/h (0 Bft)
24.11.2014 23:20 1,4 C 0,0 C 93 % 1027,3 hPa 0,0 l/m 0 min 0 min 0 W/m 0,0 km/h (0 Bft)
24.11.2014 23:22 1,4 C 0,0 C 93 % 1027,2 hPa 0,0 l/m 0 min 0 min 0 W/m 2,1 km/h (1 Bft)
24.11.2014 23:24 1,4 C 0,0 C 93 % 1027,2 hPa 0,0 l/m 0 min 0 min 0 W/m 2,1 km/h (1 Bft)
24.11.2014 23:26 1,4 C 0,0 C 93 % 1027,3 hPa 0,0 l/m 0 min 0 min 0 W/m 2,1 km/h (1 Bft)
24.11.2014 23:28 1,4 C 0,0 C 93 % 1027,2 hPa 0,0 l/m 0 min 0 min 0 W/m 2,1 km/h (1 Bft)
24.11.2014 23:30 1,4 C 0,0 C 93 % 1027,2 hPa 0,0 l/m 0 min 0 min 0 W/m 4,2 km/h (1 Bft)
24.11.2014 23:32 1,4 C 0,0 C 93 % 1027,2 hPa 0,0 l/m 0 min 0 min 0 W/m 4,2 km/h (1 Bft)
24.11.2014 23:34 1,4 C 0,0 C 93 % 1027,2 hPa 0,0 l/m 0 min 0 min 0 W/m 2,1 km/h (1 Bft)
24.11.2014 23:36 1,4 C 0,0 C 93 % 1027,2 hPa 0,0 l/m 0 min 0 min 0 W/m 2,1 km/h (1 Bft)
24.11.2014 23:38 1,4 C 0,0 C 93 % 1027,3 hPa 0,0 l/m 0 min 0 min 0 W/m 2,1 km/h (1 Bft)
24.11.2014 23:40 1,3 C 0,0 C 93 % 1027,2 hPa 0,0 l/m 0 min 0 min 0 W/m 2,1 km/h (1 Bft)
24.11.2014 23:42 1,3 C 0,0 C 93 % 1027,2 hPa 0,0 l/m 0 min 0 min 0 W/m 0,0 km/h (0 Bft)
24.11.2014 23:44 1,3 C 0,0 C 93 % 1027,2 hPa 0,0 l/m 0 min 0 min 0 W/m 2,1 km/h (1 Bft)
24.11.2014 23:46 1,3 C 0,0 C 93 % 1027,2 hPa 0,0 l/m 0 min 0 min 0 W/m 2,1 km/h (1 Bft)
24.11.2014 23:48 1,3 C 0,0 C 93 % 1027,1 hPa 0,0 l/m 0 min 0 min 0 W/m 2,1 km/h (1 Bft)
24.11.2014 23:50 1,3 C 0,0 C 94 % 1027,1 hPa 0,0 l/m 0 min 0 min 0 W/m 2,1 km/h (1 Bft)
24.11.2014 23:52 1,3 C 0,0 C 94 % 1027,1 hPa 0,0 l/m 0 min 0 min 0 W/m 0,0 km/h (0 Bft)
24.11.2014 23:54 1,2 C 0,0 C 94 % 1027,1 hPa 0,0 l/m 0 min 0 min 0 W/m 4,2 km/h (1 Bft)
24.11.2014 23:56 1,2 C 0,0 C 94 % 1027,0 hPa 0,0 l/m 0 min 0 min 0 W/m 4,2 km/h (1 Bft)
24.11.2014 23:58 1,2 C 0,0 C 94 % 1027,0 hPa 0,0 l/m 0 min 0 min 0 W/m 4,2 km/h (1 Bft)
_ Min-Zeit 23:54 23:12 13:12 00:00 - - - - 08:44
Minimum _ 1,2 C 0,0 C 70 % 1015,5 hPa - - - - 0,0 km/h (0 Bft)
_ Max-Zeit 13:36 02:26 10:48 21:26 02:58 09:18 02:30 12:12 02:30
Maximum _ 11,5 C 10,0 C 98 % 1027,4 hPa 0,2 l/m 2 min 2 min 298 W/m 37,7 km/h
W-NW (5 Bft)
Durchschnitt _ 7,5 C 5,5 C 89 % 1023,4 hPa #3,0 l/m #5:34 h #2:42 h 150 W/m 7,0 km/h (2 Bft)
© 2015 W. Hausmann